| time (UTC) | temp C | wind direction | speed KPH | gust KPH | rain 1hr cm | rain 24hr cm | rain mn cm | humidity % | barometer mb |
| 20260903035930 | 30 | 360 | 16.1 | 32.2 | 0.00 | 0.00 | 0.00 | 65 | 1014.3 |
| 20260903035831 | 30 | 145 | 14.5 | 25.7 | 0.00 | 0.00 | 0.00 | 64 | 1014.3 |
| 20260903035730 | 30 | 360 | 12.9 | 25.7 | 0.00 | 0.00 | 0.00 | 64 | 1014.2 |
| 20260903035631 | 30 | 360 | 12.9 | 29.0 | 0.00 | 0.00 | 0.00 | 64 | 1014.3 |
| 20260903035532 | 30 | 360 | 14.5 | 29.0 | 0.00 | 0.00 | 0.00 | 64 | 1014.3 |
| 20260903035436 | 30 | 360 | 16.1 | 29.0 | 0.00 | 0.00 | 0.00 | 64 | 1014.2 |
| 20260903035357 | 30 | 360 | 14.5 | 29.0 | 0.00 | 0.00 | 0.00 | 64 | 1014.2 |
| 20260903035256 | 30 | 360 | 14.5 | 29.0 | 0.00 | 0.00 | 0.00 | 64 | 1014.2 |
| 20260903035135 | 30 | 360 | 16.1 | 29.0 | 0.00 | 0.00 | 0.00 | 64 | 1014.2 |
| 20260903035035 | 30 | 360 | 14.5 | 29.0 | 0.00 | 0.00 | 0.00 | 63 | 1014.1 |
| 20260903034936 | 30 | 360 | 14.5 | 29.0 | 0.00 | 0.00 | 0.00 | 63 | 1014.1 |
| 20260903034856 | 30 | 360 | 16.1 | 29.0 | 0.00 | 0.00 | 0.00 | 63 | 1014.1 |
| 20260903034735 | 30 | 360 | 16.1 | 24.1 | 0.00 | 0.00 | 0.00 | 63 | 1014.1 |
| 20260903034654 | 30 | 360 | 16.1 | 24.1 | 0.00 | 0.00 | 0.00 | 63 | 1014.2 |
| 20260903034518 | 30 | 360 | 14.5 | 27.4 | 0.00 | 0.00 | 0.00 | 63 | 1014.2 |
| 20260903034418 | 30 | 360 | 12.9 | 27.4 | 0.00 | 0.00 | 0.00 | 63 | 1014.2 |
| 20260903034318 | 30 | 360 | 12.9 | 27.4 | 0.00 | 0.00 | 0.00 | 62 | 1014.2 |
| 20260903034219 | 30 | 360 | 12.9 | 27.4 | 0.00 | 0.00 | 0.00 | 62 | 1014.2 |
| 20260903034118 | 30 | 360 | 11.3 | 32.2 | 0.00 | 0.00 | 0.00 | 62 | 1014.1 |
| 20260903034039 | 30 | 360 | 12.9 | 32.2 | 0.00 | 0.00 | 0.00 | 62 | 1014.2 |
| 20260903033939 | 30 | 360 | 14.5 | 32.2 | 0.00 | 0.00 | 0.00 | 62 | 1014.1 |
| 20260903033818 | 30 | 360 | 16.1 | 32.2 | 0.00 | 0.00 | 0.00 | 62 | 1014.2 |
| 20260903033739 | 30 | 360 | 17.7 | 32.2 | 0.00 | 0.00 | 0.00 | 61 | 1014.2 |
| 20260903033622 | 30 | 360 | 16.1 | 32.2 | 0.00 | 0.00 | 0.00 | 61 | 1014.1 |
| 20260903033524 | 30 | 360 | 14.5 | 32.2 | 0.00 | 0.00 | 0.00 | 61 | 1014.2 |
| 20260903033425 | 30 | 360 | 14.5 | 32.2 | 0.00 | 0.00 | 0.00 | 61 | 1014.1 |
| 20260903033325 | 30 | 360 | 16.1 | 32.2 | 0.00 | 0.00 | 0.00 | 61 | 1014.1 |
| 20260903033226 | 30 | 360 | 17.7 | 32.2 | 0.00 | 0.00 | 0.00 | 61 | 1014.1 |
| 20260903033126 | 30 | 360 | 17.7 | 32.2 | 0.00 | 0.00 | 0.00 | 61 | 1014.2 |
| 20260903033026 | 30 | 360 | 20.9 | 30.6 | 0.00 | 0.00 | 0.00 | 60 | 1014.2 |
| 20260903032951 | 30 | 360 | 19.3 | 30.6 | 0.00 | 0.00 | 0.00 | 60 | 1014.2 |
| 20260903032832 | 30 | 360 | 19.3 | 30.6 | 0.00 | 0.00 | 0.00 | 60 | 1014.2 |
| 20260903032731 | 30 | 360 | 19.3 | 30.6 | 0.00 | 0.00 | 0.00 | 60 | 1014.3 |
| 20260903032631 | 30 | 360 | 17.7 | 29.0 | 0.00 | 0.00 | 0.00 | 60 | 1014.2 |
| 20260903032552 | 30 | 360 | 17.7 | 29.0 | 0.00 | 0.00 | 0.00 | 60 | 1014.2 |
| 20260903032431 | 30 | 360 | 16.1 | 24.1 | 0.00 | 0.00 | 0.00 | 60 | 1014.2 |
| 20260903032333 | 30 | 360 | 14.5 | 24.1 | 0.00 | 0.00 | 0.00 | 61 | 1014.2 |
| 20260903032218 | 30 | 360 | 12.9 | 22.5 | 0.00 | 0.00 | 0.00 | 61 | 1014.1 |
| 20260903032119 | 30 | 360 | 11.3 | 20.9 | 0.00 | 0.00 | 0.00 | 61 | 1014.2 |
| 20260903032019 | 30 | 360 | 9.7 | 20.9 | 0.00 | 0.00 | 0.00 | 61 | 1014.1 |
| 20260903031920 | 30 | 360 | 9.7 | 20.9 | 0.00 | 0.00 | 0.00 | 61 | 1014.0 |
| 20260903031841 | 30 | 360 | 9.7 | 19.3 | 0.00 | 0.00 | 0.00 | 61 | 1014.0 |
| 20260903031721 | 30 | 102 | 9.7 | 19.3 | 0.00 | 0.00 | 0.00 | 61 | 1014.0 |
| 20260903031622 | 30 | 360 | 9.7 | 19.3 | 0.00 | 0.00 | 0.00 | 61 | 1013.9 |
| 20260903031526 | 30 | 360 | 9.7 | 17.7 | 0.00 | 0.00 | 0.00 | 61 | 1014.0 |
| 20260903031445 | 30 | 360 | 8.0 | 17.7 | 0.00 | 0.00 | 0.00 | 61 | 1013.9 |
| 20260903031324 | 30 | 360 | 8.0 | 16.1 | 0.00 | 0.00 | 0.00 | 61 | 1013.9 |
| 20260903031224 | 30 | 360 | 8.0 | 14.5 | 0.00 | 0.00 | 0.00 | 61 | 1013.8 |
| 20260903031145 | 30 | 138 | 8.0 | 12.9 | 0.00 | 0.00 | 0.00 | 60 | 1013.7 |
| 20260903031025 | 30 | 360 | 8.0 | 12.9 | 0.00 | 0.00 | 0.00 | 61 | 1013.8 |
| 20260903030925 | 30 | 360 | 8.0 | 12.9 | 0.00 | 0.00 | 0.00 | 61 | 1013.7 |
| 20260903030826 | 30 | 360 | 8.0 | 12.9 | 0.00 | 0.00 | 0.00 | 61 | 1013.8 |
| 20260903030732 | 30 | 360 | 8.0 | 12.9 | 0.00 | 0.00 | 0.00 | 61 | 1013.7 |
| 20260903030632 | 30 | 360 | 8.0 | 12.9 | 0.00 | 0.00 | 0.00 | 61 | 1013.7 |
| 20260903030532 | 30 | 360 | 8.0 | 12.9 | 0.00 | 0.00 | 0.00 | 61 | 1013.7 |
| 20260903030433 | 30 | 360 | 6.4 | 9.7 | 0.00 | 0.00 | 0.00 | 61 | 1013.7 |
| 20260903030334 | 30 | 360 | 4.8 | 8.0 | 0.00 | 0.00 | 0.00 | 61 | 1013.7 |
| 20260903030255 | 30 | 360 | 4.8 | 8.0 | 0.00 | 0.00 | 0.00 | 60 | 1013.7 |
| 20260903030118 | 30 | 360 | 4.8 | 8.0 | 0.00 | 0.00 | 0.00 | 60 | 1013.5 |
| 20260903030017 | 30 | 360 | 4.8 | 8.0 | 0.00 | 0.00 | 0.00 | 60 | 1013.5 |
| 20260903025938 | 31 | 360 | 4.8 | 8.0 | 0.00 | 0.00 | 0.00 | 60 | 1013.5 |
| 20260903025819 | 31 | 360 | 4.8 | 8.0 | 0.00 | 0.00 | 0.00 | 60 | 1013.5 |
| 20260903025719 | 31 | 360 | 4.8 | 8.0 | 0.00 | 0.00 | 0.00 | 60 | 1013.4 |
| 20260903025619 | 31 | 360 | 4.8 | 8.0 | 0.00 | 0.00 | 0.00 | 60 | 1013.4 |
| 20260903025520 | 31 | 360 | 4.8 | 8.0 | 0.00 | 0.00 | 0.00 | 60 | 1013.3 |
| 20260903025421 | 31 | 360 | 4.8 | 8.0 | 0.00 | 0.00 | 0.00 | 60 | 1013.4 |
| 20260903025346 | 31 | 360 | 3.2 | 8.0 | 0.00 | 0.00 | 0.00 | 60 | 1013.4 |
| 20260903025226 | 31 | 360 | 4.8 | 8.0 | 0.00 | 0.00 | 0.00 | 60 | 1013.4 |
| 20260903025126 | 31 | 360 | 4.8 | 8.0 | 0.00 | 0.00 | 0.00 | 60 | 1013.4 |
| 20260903025025 | 31 | 360 | 4.8 | 9.7 | 0.00 | 0.00 | 0.00 | 60 | 1013.4 |
| 20260903024926 | 31 | 360 | 4.8 | 9.7 | 0.00 | 0.00 | 0.00 | 60 | 1013.4 |
| 20260903024827 | 31 | 360 | 4.8 | 9.7 | 0.00 | 0.00 | 0.00 | 60 | 1013.4 |
| 20260903024727 | 31 | 360 | 4.8 | 9.7 | 0.00 | 0.00 | 0.00 | 60 | 1013.4 |
| 20260903024627 | 31 | 360 | 4.8 | 9.7 | 0.00 | 0.00 | 0.00 | 60 | 1013.4 |
| 20260903024532 | 31 | 360 | 4.8 | 9.7 | 0.00 | 0.00 | 0.00 | 59 | 1013.3 |
| 20260903024431 | 31 | 360 | 6.4 | 9.7 | 0.00 | 0.00 | 0.00 | 59 | 1013.3 |
| 20260903024332 | 31 | 360 | 6.4 | 9.7 | 0.00 | 0.00 | 0.00 | 59 | 1013.4 |
| 20260903024234 | 31 | 360 | 6.4 | 9.7 | 0.00 | 0.00 | 0.00 | 59 | 1013.4 |
| 20260903024135 | 31 | 360 | 6.4 | 9.7 | 0.00 | 0.00 | 0.00 | 59 | 1013.3 |
| 20260903024036 | 31 | 360 | 6.4 | 9.7 | 0.00 | 0.00 | 0.00 | 59 | 1013.3 |
| 20260903023920 | 31 | 360 | 6.4 | 9.7 | 0.00 | 0.00 | 0.00 | 59 | 1013.3 |
| 20260903023843 | 31 | 360 | 6.4 | 9.7 | 0.00 | 0.00 | 0.00 | 59 | 1013.3 |
| 20260903023716 | 31 | 360 | 4.8 | 9.7 | 0.00 | 0.00 | 0.00 | 59 | 1013.2 |
| 20260903023617 | 31 | 360 | 4.8 | 9.7 | 0.00 | 0.00 | 0.00 | 59 | 1013.2 |
| 20260903023518 | 31 | 360 | 4.8 | 12.9 | 0.00 | 0.00 | 0.00 | 59 | 1013.2 |
| 20260903023418 | 31 | 360 | 4.8 | 12.9 | 0.00 | 0.00 | 0.00 | 59 | 1013.2 |
| 20260903023339 | 31 | 360 | 4.8 | 12.9 | 0.00 | 0.00 | 0.00 | 59 | 1013.2 |
| 20260903023222 | 31 | 360 | 4.8 | 12.9 | 0.00 | 0.00 | 0.00 | 59 | 1013.2 |
| 20260903023123 | 31 | 360 | 4.8 | 12.9 | 0.00 | 0.00 | 0.00 | 59 | 1013.2 |
| 20260903023044 | 31 | 360 | 4.8 | 12.9 | 0.00 | 0.00 | 0.00 | 59 | 1013.2 |
| 20260903022924 | 31 | 143 | 6.4 | 12.9 | 0.00 | 0.00 | 0.00 | 59 | 1013.1 |
| 20260903022826 | 31 | 144 | 6.4 | 12.9 | 0.00 | 0.00 | 0.00 | 59 | 1013.2 |
| 20260903022726 | 31 | 360 | 6.4 | 14.5 | 0.00 | 0.00 | 0.00 | 59 | 1013.2 |
| 20260903022627 | 31 | 360 | 6.4 | 14.5 | 0.00 | 0.00 | 0.00 | 59 | 1013.2 |
| 20260903022532 | 31 | 360 | 4.8 | 14.5 | 0.00 | 0.00 | 0.00 | 59 | 1013.2 |
| 20260903022432 | 31 | 360 | 3.2 | 14.5 | 0.00 | 0.00 | 0.00 | 59 | 1013.1 |
| 20260903022334 | 31 | 360 | 3.2 | 14.5 | 0.00 | 0.00 | 0.00 | 60 | 1013.0 |
| 20260903022234 | 31 | 360 | 3.2 | 14.5 | 0.00 | 0.00 | 0.00 | 60 | 1013.0 |
| 20260903022134 | 31 | 360 | 4.8 | 14.5 | 0.00 | 0.00 | 0.00 | 60 | 1012.9 |
| 20260903022035 | 31 | 360 | 6.4 | 14.5 | 0.00 | 0.00 | 0.00 | 60 | 1013.0 |
| 20260903021920 | 31 | 360 | 8.0 | 14.5 | 0.00 | 0.00 | 0.00 | 59 | 1012.9 |
| 20260903021820 | 31 | 360 | 8.0 | 14.5 | 0.00 | 0.00 | 0.00 | 59 | 1013.0 |
| 20260903021721 | 31 | 360 | 8.0 | 12.9 | 0.00 | 0.00 | 0.00 | 59 | 1012.9 |
| 20260903021642 | 31 | 360 | 8.0 | 12.9 | 0.00 | 0.00 | 0.00 | 58 | 1012.9 |
| 20260903021516 | 31 | 360 | 6.4 | 8.0 | 0.00 | 0.00 | 0.00 | 58 | 1012.9 |
| 20260903021416 | 31 | 360 | 4.8 | 8.0 | 0.00 | 0.00 | 0.00 | 58 | 1012.9 |
| 20260903021316 | 31 | 360 | 3.2 | 4.8 | 0.00 | 0.00 | 0.00 | 57 | 1012.7 |
| 20260903021242 | 31 | 360 | 3.2 | 4.8 | 0.00 | 0.00 | 0.00 | 57 | 1012.7 |
| 20260903021116 | 31 | 360 | 1.6 | 4.8 | 0.00 | 0.00 | 0.00 | 57 | 1012.7 |
| 20260903021016 | 31 | 360 | 3.2 | 4.8 | 0.00 | 0.00 | 0.00 | 57 | 1012.7 |
| 20260903020917 | 31 | 360 | 3.2 | 4.8 | 0.00 | 0.00 | 0.00 | 57 | 1012.6 |
| 20260903020816 | 31 | 360 | 3.2 | 4.8 | 0.00 | 0.00 | 0.00 | 57 | 1012.6 |
| 20260903020717 | 31 | 360 | 3.2 | 4.8 | 0.00 | 0.00 | 0.00 | 56 | 1012.6 |
| 20260903020638 | 31 | 360 | 3.2 | 4.8 | 0.00 | 0.00 | 0.00 | 56 | 1012.6 |
| 20260903020522 | 31 | 360 | 3.2 | 4.8 | 0.00 | 0.00 | 0.00 | 56 | 1012.6 |
| 20260903020423 | 31 | 113 | 3.2 | 4.8 | 0.00 | 0.00 | 0.00 | 56 | 1012.6 |
| 20260903020324 | 31 | 360 | 3.2 | 4.8 | 0.00 | 0.00 | 0.00 | 56 | 1012.6 |
| 20260903020225 | 31 | 360 | 3.2 | 4.8 | 0.00 | 0.00 | 0.00 | 56 | 1012.6 |
| 20260903020146 | 32 | 360 | 3.2 | 4.8 | 0.00 | 0.00 | 0.00 | 56 | 1012.6 |
| 20260903020024 | 32 | 360 | 3.2 | 4.8 | 0.00 | 0.00 | 0.00 | 56 | 1012.6 |
| 20260903015924 | 32 | 360 | 3.2 | 4.8 | 0.00 | 0.00 | 0.00 | 56 | 1012.6 |
| 20260903015825 | 32 | 360 | 3.2 | 4.8 | 0.00 | 0.00 | 0.00 | 56 | 1012.5 |
| 20260903015728 | 32 | 360 | 3.2 | 4.8 | 0.00 | 0.00 | 0.00 | 56 | 1012.6 |
| 20260903015630 | 32 | 360 | 1.6 | 3.2 | 0.00 | 0.00 | 0.00 | 56 | 1012.6 |
| 20260903015531 | 32 | 360 | 1.6 | 3.2 | 0.00 | 0.00 | 0.00 | 56 | 1012.5 |
| 20260903015432 | 32 | 360 | 0.0 | 3.2 | 0.00 | 0.00 | 0.00 | 56 | 1012.6 |
| 20260903015334 | 32 | 115 | 0.0 | 3.2 | 0.00 | 0.00 | 0.00 | 56 | 1012.5 |
| 20260903015235 | 32 | 360 | 1.6 | 3.2 | 0.00 | 0.00 | 0.00 | 55 | 1012.5 |
| 20260903015119 | 32 | 360 | 1.6 | 4.8 | 0.00 | 0.00 | 0.00 | 55 | 1012.6 |
| 20260903015020 | 32 | 360 | 1.6 | 4.8 | 0.00 | 0.00 | 0.00 | 55 | 1012.5 |
| 20260903014921 | 32 | 114 | 1.6 | 4.8 | 0.00 | 0.00 | 0.00 | 55 | 1012.5 |
| 20260903014841 | 32 | 114 | 1.6 | 4.8 | 0.00 | 0.00 | 0.00 | 55 | 1012.5 |
| 20260903014740 | 32 | 360 | 1.6 | 4.8 | 0.00 | 0.00 | 0.00 | 55 | 1012.5 |
| 20260903014620 | 32 | 114 | 3.2 | 4.8 | 0.00 | 0.00 | 0.00 | 55 | 1012.5 |
| 20260903014519 | 32 | 360 | 3.2 | 4.8 | 0.00 | 0.00 | 0.00 | 55 | 1012.4 |
| 20260903014439 | 32 | 114 | 3.2 | 4.8 | 0.00 | 0.00 | 0.00 | 54 | 1012.5 |
| 20260903014318 | 32 | 360 | 3.2 | 4.8 | 0.00 | 0.00 | 0.00 | 55 | 1012.4 |
| 20260903014223 | 32 | 360 | 1.6 | 4.8 | 0.00 | 0.00 | 0.00 | 55 | 1012.4 |
| 20260903014125 | 32 | 360 | 3.2 | 6.4 | 0.00 | 0.00 | 0.00 | 55 | 1012.5 |
| 20260903014026 | 32 | 360 | 3.2 | 6.4 | 0.00 | 0.00 | 0.00 | 55 | 1012.4 |
| 20260903013927 | 32 | 360 | 3.2 | 6.4 | 0.00 | 0.00 | 0.00 | 54 | 1012.4 |
| 20260903013826 | 32 | 360 | 3.2 | 6.4 | 0.00 | 0.00 | 0.00 | 54 | 1012.3 |
| 20260903013727 | 32 | 360 | 3.2 | 6.4 | 0.00 | 0.00 | 0.00 | 54 | 1012.3 |
| 20260903013648 | 32 | 360 | 3.2 | 6.4 | 0.00 | 0.00 | 0.00 | 54 | 1012.4 |
| 20260903013532 | 32 | 360 | 3.2 | 6.4 | 0.00 | 0.00 | 0.00 | 54 | 1012.3 |
| 20260903013431 | 32 | 360 | 3.2 | 6.4 | 0.00 | 0.00 | 0.00 | 54 | 1012.3 |
| 20260903013351 | 32 | 360 | 3.2 | 8.0 | 0.00 | 0.00 | 0.00 | 54 | 1012.4 |
| 20260903013251 | 32 | 360 | 3.2 | 8.0 | 0.00 | 0.00 | 0.00 | 54 | 1012.3 |
| 20260903013130 | 32 | 360 | 3.2 | 8.0 | 0.00 | 0.00 | 0.00 | 55 | 1012.3 |
| 20260903013031 | 32 | 360 | 3.2 | 8.0 | 0.00 | 0.00 | 0.00 | 55 | 1012.4 |
| 20260903012931 | 32 | 360 | 3.2 | 8.0 | 0.00 | 0.00 | 0.00 | 54 | 1012.3 |
| 20260903012853 | 32 | 360 | 4.8 | 8.0 | 0.00 | 0.00 | 0.00 | 55 | 1012.3 |
| 20260903012735 | 32 | 360 | 4.8 | 8.0 | 0.00 | 0.00 | 0.00 | 54 | 1012.3 |
| 20260903012636 | 32 | 360 | 4.8 | 8.0 | 0.00 | 0.00 | 0.00 | 55 | 1012.3 |
| 20260903012557 | 32 | 360 | 4.8 | 8.0 | 0.00 | 0.00 | 0.00 | 54 | 1012.3 |
| 20260903012435 | 32 | 360 | 3.2 | 6.4 | 0.00 | 0.00 | 0.00 | 55 | 1012.4 |
| 20260903012317 | 32 | 360 | 3.2 | 6.4 | 0.00 | 0.00 | 0.00 | 55 | 1012.3 |
| 20260903012238 | 32 | 360 | 4.8 | 6.4 | 0.00 | 0.00 | 0.00 | 54 | 1012.3 |
| 20260903012118 | 32 | 360 | 4.8 | 6.4 | 0.00 | 0.00 | 0.00 | 54 | 1012.3 |
| 20260903012018 | 32 | 360 | 4.8 | 6.4 | 0.00 | 0.00 | 0.00 | 54 | 1012.3 |
| 20260903011922 | 32 | 360 | 4.8 | 6.4 | 0.00 | 0.00 | 0.00 | 54 | 1012.4 |
| 20260903011823 | 32 | 360 | 3.2 | 6.4 | 0.00 | 0.00 | 0.00 | 54 | 1012.3 |
| 20260903011724 | 32 | 360 | 3.2 | 6.4 | 0.00 | 0.00 | 0.00 | 54 | 1012.3 |
| 20260903011624 | 32 | 360 | 3.2 | 6.4 | 0.00 | 0.00 | 0.00 | 54 | 1012.4 |
| 20260903011525 | 32 | 360 | 3.2 | 6.4 | 0.00 | 0.00 | 0.00 | 53 | 1012.3 |
| 20260903011425 | 32 | 360 | 4.8 | 8.0 | 0.00 | 0.00 | 0.00 | 53 | 1012.3 |
| 20260903011325 | 32 | 109 | 4.8 | 8.0 | 0.00 | 0.00 | 0.00 | 53 | 1012.3 |
| 20260903011230 | 33 | 360 | 4.8 | 9.7 | 0.00 | 0.00 | 0.00 | 53 | 1012.3 |
| 20260903011130 | 33 | 360 | 4.8 | 12.9 | 0.00 | 0.00 | 0.00 | 53 | 1012.4 |
| 20260903011050 | 33 | 360 | 4.8 | 12.9 | 0.00 | 0.00 | 0.00 | 53 | 1012.3 |
| 20260903010931 | 33 | 360 | 4.8 | 12.9 | 0.00 | 0.00 | 0.00 | 53 | 1012.4 |
| 20260903010850 | 33 | 360 | 4.8 | 12.9 | 0.00 | 0.00 | 0.00 | 53 | 1012.3 |
| 20260903010729 | 33 | 360 | 6.4 | 14.5 | 0.00 | 0.00 | 0.00 | 52 | 1012.4 |
| 20260903010630 | 33 | 360 | 6.4 | 14.5 | 0.00 | 0.00 | 0.00 | 52 | 1012.4 |
| 20260903010529 | 33 | 360 | 6.4 | 14.5 | 0.00 | 0.00 | 0.00 | 52 | 1012.3 |
| 20260903010434 | 33 | 360 | 8.0 | 14.5 | 0.00 | 0.00 | 0.00 | 51 | 1012.3 |
| 20260903010334 | 33 | 360 | 8.0 | 14.5 | 0.00 | 0.00 | 0.00 | 51 | 1012.3 |
| 20260903010234 | 33 | 360 | 8.0 | 14.5 | 0.00 | 0.00 | 0.00 | 51 | 1012.4 |
| 20260903010155 | 33 | 360 | 6.4 | 14.5 | 0.00 | 0.00 | 0.00 | 51 | 1012.3 |
| 20260903010035 | 33 | 360 | 4.8 | 14.5 | 0.00 | 0.00 | 0.00 | 51 | 1012.3 |
| 20260903005935 | 34 | 360 | 1.6 | 14.5 | 0.00 | 0.00 | 0.00 | 55 | 1012.3 |
| 20260903005835 | 34 | 360 | 0.0 | 1.6 | 0.00 | 0.00 | 0.00 | 54 | 1012.2 |
| 20260903005719 | 34 | 360 | 0.0 | 0.0 | 0.00 | 0.00 | 0.00 | 54 | 1012.3 |
| 20260903005621 | 34 | 360 | 0.0 | 0.0 | 0.00 | 0.00 | 0.00 | 53 | 1012.2 |
| 20260903005522 | 34 | 360 | 0.0 | 0.0 | 0.00 | 0.00 | 0.00 | 53 | 1012.2 |
| 20260903005423 | 35 | 360 | 0.0 | 0.0 | 0.00 | 0.00 | 0.00 | 53 | 1012.1 |
| 20260903005343 | 35 | 360 | 0.0 | 0.0 | 0.00 | 0.00 | 0.00 | 51 | 1012.2 |
| 20260903005306 | 35 | 360 | 0.0 | 0.0 | 0.00 | 0.00 | 0.00 | 51 | 1012.1 |
| 20260903005116 | 35 | 360 | 0.0 | 0.0 | 0.00 | 0.00 | 0.00 | 52 | 1012.1 |
| 20260903005020 | 35 | 360 | 0.0 | 0.0 | 0.00 | 0.00 | 0.00 | 50 | 1012.1 |
| 20260903004920 | 35 | 360 | 0.0 | 0.0 | 0.00 | 0.00 | 0.00 | 50 | 1012.1 |
| 20260903004821 | 35 | 360 | 0.0 | 0.0 | 0.00 | 0.00 | 0.00 | 50 | 1012.2 |
| 20260903004721 | 35 | 360 | 0.0 | 0.0 | 0.00 | 0.00 | 0.00 | 50 | 1012.2 |
| 20260903004622 | 35 | 360 | 0.0 | 0.0 | 0.00 | 0.00 | 0.00 | 50 | 1012.2 |
| 20260903004523 | 35 | 360 | 0.0 | 0.0 | 0.00 | 0.00 | 0.00 | 51 | 1012.3 |
| 20260903004423 | 35 | 360 | 0.0 | 0.0 | 0.00 | 0.00 | 0.00 | 50 | 1012.3 |
| 20260903004328 | 35 | 360 | 0.0 | 0.0 | 0.00 | 0.00 | 0.00 | 50 | 1012.3 |
| 20260903004249 | 35 | 360 | 0.0 | 0.0 | 0.00 | 0.00 | 0.00 | 50 | 1012.2 |
| 20260903004127 | 35 | 360 | 0.0 | 0.0 | 0.00 | 0.00 | 0.00 | 51 | 1012.3 |
| 20260903004028 | 35 | 360 | 0.0 | 0.0 | 0.00 | 0.00 | 0.00 | 51 | 1012.3 |
| 20260903003929 | 35 | 360 | 0.0 | 0.0 | 0.00 | 0.00 | 0.00 | 51 | 1012.2 |
| 20260903003830 | 35 | 360 | 0.0 | 0.0 | 0.00 | 0.00 | 0.00 | 50 | 1012.3 |
| 20260903003730 | 35 | 360 | 0.0 | 0.0 | 0.00 | 0.00 | 0.00 | 50 | 1012.3 |
| 20260903003630 | 35 | 360 | 0.0 | 0.0 | 0.00 | 0.00 | 0.00 | 49 | 1012.3 |
| 20260903003535 | 35 | 360 | 0.0 | 0.0 | 0.00 | 0.00 | 0.00 | 48 | 1012.2 |
| 20260903003417 | 35 | 360 | 0.0 | 0.0 | 0.00 | 0.00 | 0.00 | 48 | 1012.3 |
| 20260903003338 | 35 | 360 | 0.0 | 0.0 | 0.00 | 0.00 | 0.00 | 48 | 1012.3 |
| 20260903003237 | 35 | 360 | 0.0 | 0.0 | 0.00 | 0.00 | 0.00 | 48 | 1012.3 |
| 20260903003137 | 35 | 360 | 0.0 | 0.0 | 0.00 | 0.00 | 0.00 | 48 | 1012.3 |
| 20260903003034 | 35 | 360 | 0.0 | 0.0 | 0.00 | 0.00 | 0.00 | 48 | 1012.2 |
| 20260903002935 | 35 | 360 | 0.0 | 0.0 | 0.00 | 0.00 | 0.00 | 49 | 1012.3 |
| 20260903002820 | 35 | 360 | 0.0 | 0.0 | 0.00 | 0.00 | 0.00 | 48 | 1012.3 |
| 20260903002720 | 35 | 360 | 0.0 | 0.0 | 0.00 | 0.00 | 0.00 | 47 | 1012.3 |
| 20260903002621 | 35 | 360 | 0.0 | 1.6 | 0.00 | 0.00 | 0.00 | 47 | 1012.3 |
| 20260903002521 | 35 | 360 | 0.0 | 1.6 | 0.00 | 0.00 | 0.00 | 47 | 1012.2 |
| 20260903002421 | 35 | 360 | 0.0 | 1.6 | 0.00 | 0.00 | 0.00 | 48 | 1012.1 |
| 20260903002342 | 35 | 360 | 0.0 | 1.6 | 0.00 | 0.00 | 0.00 | 47 | 1012.2 |
| 20260903002216 | 35 | 360 | 0.0 | 1.6 | 0.00 | 0.00 | 0.00 | 46 | 1012.3 |
| 20260903002121 | 35 | 360 | 0.0 | 3.2 | 0.00 | 0.00 | 0.00 | 46 | 1012.2 |
| 20260903002022 | 35 | 360 | 0.0 | 3.2 | 0.00 | 0.00 | 0.00 | 46 | 1012.1 |
| 20260903001943 | 35 | 360 | 0.0 | 3.2 | 0.00 | 0.00 | 0.00 | 46 | 1012.2 |
| 20260903001904 | 35 | 360 | 0.0 | 3.2 | 0.00 | 0.00 | 0.00 | 46 | 1012.3 |
| 20260903001716 | 35 | 360 | 1.6 | 3.2 | 0.00 | 0.00 | 0.00 | 46 | 1012.2 |
| 20260903001616 | 35 | 360 | 1.6 | 3.2 | 0.00 | 0.00 | 0.00 | 46 | 1012.2 |
| 20260903001516 | 35 | 360 | 1.6 | 3.2 | 0.00 | 0.00 | 0.00 | 46 | 1012.2 |
| 20260903001421 | 35 | 360 | 1.6 | 4.8 | 0.00 | 0.00 | 0.00 | 46 | 1012.2 |
| 20260903001322 | 35 | 360 | 1.6 | 4.8 | 0.00 | 0.00 | 0.00 | 46 | 1012.2 |
| 20260903001223 | 36 | 360 | 1.6 | 4.8 | 0.00 | 0.00 | 0.00 | 46 | 1012.3 |
| 20260903001124 | 35 | 360 | 1.6 | 4.8 | 0.00 | 0.00 | 0.00 | 46 | 1012.2 |
| 20260903001024 | 36 | 360 | 1.6 | 6.4 | 0.00 | 0.00 | 0.00 | 45 | 1012.2 |
| 20260903000926 | 35 | 360 | 1.6 | 6.4 | 0.00 | 0.00 | 0.00 | 45 | 1012.2 |
| 20260903000825 | 36 | 360 | 1.6 | 6.4 | 0.00 | 0.00 | 0.00 | 44 | 1012.2 |
| 20260903000731 | 36 | 360 | 3.2 | 6.4 | 0.00 | 0.00 | 0.00 | 44 | 1012.3 |
| 20260903000632 | 36 | 360 | 3.2 | 6.4 | 0.00 | 0.00 | 0.00 | 44 | 1012.2 |
| 20260903000532 | 36 | 360 | 3.2 | 6.4 | 0.00 | 0.00 | 0.00 | 44 | 1012.2 |
| 20260903000433 | 36 | 360 | 3.2 | 6.4 | 0.00 | 0.00 | 0.00 | 44 | 1012.1 |
| 20260903000355 | 36 | 360 | 4.8 | 6.4 | 0.00 | 0.00 | 0.00 | 44 | 1012.2 |
| 20260903000251 | 36 | 360 | 4.8 | 6.4 | 0.00 | 0.00 | 0.00 | 45 | 1012.1 |
| 20260903000132 | 36 | 360 | 4.8 | 6.4 | 0.00 | 0.00 | 0.00 | 44 | 1012.2 |
| 20260903000017 | 36 | 360 | 4.8 | 6.4 | 0.00 | 0.00 | 0.00 | 44 | 1012.1 |
| 20260902235916 | 36 | 360 | 3.2 | 6.4 | 0.00 | 0.00 | 0.00 | 45 | 1012.2 |
| 20260902235818 | 36 | 360 | 1.6 | 6.4 | 0.00 | 0.00 | 0.00 | 45 | 1012.1 |
| 20260902235718 | 36 | 360 | 1.6 | 4.8 | 0.00 | 0.00 | 0.00 | 45 | 1012.2 |
| 20260902235639 | 36 | 360 | 1.6 | 4.8 | 0.00 | 0.00 | 0.00 | 45 | 1012.2 |
| 20260902235518 | 36 | 360 | 1.6 | 4.8 | 0.00 | 0.00 | 0.00 | 45 | 1012.3 |
| 20260902235419 | 36 | 360 | 3.2 | 4.8 | 0.00 | 0.00 | 0.00 | 45 | 1012.3 |
| 20260902235322 | 36 | 360 | 1.6 | 4.8 | 0.00 | 0.00 | 0.00 | 45 | 1012.3 |
| 20260902235222 | 36 | 360 | 3.2 | 6.4 | 0.00 | 0.00 | 0.00 | 45 | 1012.3 |
| 20260902235123 | 36 | 360 | 3.2 | 6.4 | 0.00 | 0.00 | 0.00 | 45 | 1012.3 |
| 20260902235024 | 36 | 360 | 3.2 | 6.4 | 0.00 | 0.00 | 0.00 | 45 | 1012.3 |
| 20260902234924 | 36 | 360 | 3.2 | 8.0 | 0.00 | 0.00 | 0.00 | 45 | 1012.3 |
| 20260902234825 | 36 | 360 | 3.2 | 8.0 | 0.00 | 0.00 | 0.00 | 45 | 1012.2 |
| 20260902234725 | 36 | 360 | 3.2 | 8.0 | 0.00 | 0.00 | 0.00 | 46 | 1012.3 |
| 20260902234629 | 36 | 360 | 3.2 | 8.0 | 0.00 | 0.00 | 0.00 | 45 | 1012.3 |
| 20260902234530 | 36 | 360 | 3.2 | 8.0 | 0.00 | 0.00 | 0.00 | 45 | 1012.1 |
| 20260902234451 | 36 | 360 | 3.2 | 12.9 | 0.00 | 0.00 | 0.00 | 45 | 1012.1 |
| 20260902234329 | 36 | 360 | 4.8 | 12.9 | 0.00 | 0.00 | 0.00 | 45 | 1012.2 |
| 20260902234227 | 36 | 360 | 4.8 | 12.9 | 0.00 | 0.00 | 0.00 | 45 | 1012.1 |
| 20260902234126 | 36 | 360 | 4.8 | 12.9 | 0.00 | 0.00 | 0.00 | 45 | 1012.2 |
| 20260902234026 | 36 | 360 | 6.4 | 12.9 | 0.00 | 0.00 | 0.00 | 44 | 1012.1 |
| 20260902233930 | 36 | 360 | 6.4 | 12.9 | 0.00 | 0.00 | 0.00 | 44 | 1012.3 |
| 20260902233851 | 36 | 360 | 8.0 | 12.9 | 0.00 | 0.00 | 0.00 | 45 | 1012.2 |
| 20260902233730 | 36 | 360 | 6.4 | 12.9 | 0.00 | 0.00 | 0.00 | 45 | 1012.2 |
| 20260902233630 | 36 | 360 | 6.4 | 12.9 | 0.00 | 0.00 | 0.00 | 45 | 1012.3 |
| 20260902233530 | 36 | 360 | 4.8 | 8.0 | 0.00 | 0.00 | 0.00 | 45 | 1012.3 |
| 20260902233432 | 36 | 360 | 4.8 | 8.0 | 0.00 | 0.00 | 0.00 | 45 | 1012.2 |
| 20260902233332 | 36 | 360 | 4.8 | 8.0 | 0.00 | 0.00 | 0.00 | 44 | 1012.2 |
| 20260902233217 | 36 | 360 | 4.8 | 8.0 | 0.00 | 0.00 | 0.00 | 45 | 1012.3 |
| 20260902233117 | 36 | 360 | 4.8 | 8.0 | 0.00 | 0.00 | 0.00 | 44 | 1012.3 |
| 20260902233017 | 36 | 360 | 4.8 | 9.7 | 0.00 | 0.00 | 0.00 | 44 | 1012.3 |
| 20260902232918 | 36 | 360 | 4.8 | 9.7 | 0.00 | 0.00 | 0.00 | 45 | 1012.2 |
| 20260902232820 | 36 | 360 | 6.4 | 9.7 | 0.00 | 0.00 | 0.00 | 45 | 1012.3 |
| 20260902232718 | 36 | 360 | 6.4 | 9.7 | 0.00 | 0.00 | 0.00 | 44 | 1012.3 |
| 20260902232618 | 36 | 360 | 6.4 | 9.7 | 0.00 | 0.00 | 0.00 | 44 | 1012.4 |
| 20260902232524 | 36 | 360 | 6.4 | 9.7 | 0.00 | 0.00 | 0.00 | 44 | 1012.3 |
| 20260902232424 | 36 | 360 | 4.8 | 9.7 | 0.00 | 0.00 | 0.00 | 43 | 1012.4 |
| 20260902232325 | 36 | 360 | 3.2 | 9.7 | 0.00 | 0.00 | 0.00 | 43 | 1012.4 |
| 20260902232226 | 36 | 360 | 1.6 | 9.7 | 0.00 | 0.00 | 0.00 | 43 | 1012.4 |
| 20260902232126 | 36 | 360 | 1.6 | 6.4 | 0.00 | 0.00 | 0.00 | 43 | 1012.4 |
| 20260902232048 | 36 | 360 | 3.2 | 6.4 | 0.00 | 0.00 | 0.00 | 43 | 1012.3 |
| 20260902231927 | 36 | 360 | 3.2 | 6.4 | 0.00 | 0.00 | 0.00 | 43 | 1012.3 |
| 20260902231852 | 36 | 360 | 3.2 | 6.4 | 0.00 | 0.00 | 0.00 | 44 | 1012.4 |
| 20260902231731 | 36 | 360 | 1.6 | 8.0 | 0.00 | 0.00 | 0.00 | 43 | 1012.4 |
| 20260902231632 | 36 | 360 | 1.6 | 8.0 | 0.00 | 0.00 | 0.00 | 44 | 1012.3 |
| 20260902231533 | 36 | 360 | 1.6 | 8.0 | 0.00 | 0.00 | 0.00 | 44 | 1012.3 |
| 20260902231453 | 36 | 360 | 1.6 | 9.7 | 0.00 | 0.00 | 0.00 | 43 | 1012.3 |
| 20260902231333 | 36 | 360 | 1.6 | 9.7 | 0.00 | 0.00 | 0.00 | 43 | 1012.3 |
| 20260902231234 | 36 | 360 | 1.6 | 9.7 | 0.00 | 0.00 | 0.00 | 43 | 1012.3 |
| 20260902231118 | 36 | 360 | 3.2 | 9.7 | 0.00 | 0.00 | 0.00 | 43 | 1012.3 |
| 20260902231018 | 36 | 360 | 3.2 | 9.7 | 0.00 | 0.00 | 0.00 | 43 | 1012.3 |
| 20260902230919 | 36 | 360 | 3.2 | 9.7 | 0.00 | 0.00 | 0.00 | 44 | 1012.3 |
| 20260902230820 | 36 | 360 | 4.8 | 9.7 | 0.00 | 0.00 | 0.00 | 44 | 1012.3 |
| 20260902230720 | 36 | 360 | 4.8 | 9.7 | 0.00 | 0.00 | 0.00 | 44 | 1012.3 |
| 20260902230621 | 36 | 360 | 4.8 | 9.7 | 0.00 | 0.00 | 0.00 | 44 | 1012.2 |
| 20260902230526 | 36 | 360 | 4.8 | 9.7 | 0.00 | 0.00 | 0.00 | 44 | 1012.2 |
| 20260902230426 | 36 | 360 | 6.4 | 9.7 | 0.00 | 0.00 | 0.00 | 44 | 1012.3 |
| 20260902230327 | 36 | 360 | 6.4 | 9.7 | 0.00 | 0.00 | 0.00 | 44 | 1012.3 |
| 20260902230228 | 36 | 360 | 6.4 | 9.7 | 0.00 | 0.00 | 0.00 | 44 | 1012.3 |
| 20260902230128 | 36 | 360 | 4.8 | 12.9 | 0.00 | 0.00 | 0.00 | 43 | 1012.3 |
| 20260902230050 | 36 | 360 | 3.2 | 12.9 | 0.00 | 0.00 | 0.00 | 46 | 1012.3 |
| 20260902225929 | 36 | 360 | 1.6 | 12.9 | 0.00 | 0.00 | 0.00 | 46 | 1012.3 |
| 20260902225835 | 36 | 360 | 3.2 | 12.9 | 0.00 | 0.00 | 0.00 | 46 | 1012.3 |
| 20260902225735 | 36 | 360 | 3.2 | 12.9 | 0.00 | 0.00 | 0.00 | 45 | 1012.3 |
| 20260902225655 | 36 | 360 | 3.2 | 12.9 | 0.00 | 0.00 | 0.00 | 45 | 1012.2 |
| 20260902225535 | 36 | 360 | 3.2 | 12.9 | 0.00 | 0.00 | 0.00 | 46 | 1012.2 |
| 20260902225435 | 36 | 360 | 4.8 | 12.9 | 0.00 | 0.00 | 0.00 | 46 | 1012.3 |
| 20260902225335 | 36 | 360 | 6.4 | 12.9 | 0.00 | 0.00 | 0.00 | 46 | 1012.2 |
| 20260902225238 | 36 | 360 | 6.4 | 16.1 | 0.00 | 0.00 | 0.00 | 48 | 1012.2 |
| 20260902225137 | 35 | 360 | 4.8 | 16.1 | 0.00 | 0.00 | 0.00 | 46 | 1012.2 |
| 20260902225021 | 35 | 360 | 4.8 | 16.1 | 0.00 | 0.00 | 0.00 | 47 | 1012.3 |
| 20260902224921 | 35 | 360 | 4.8 | 16.1 | 0.00 | 0.00 | 0.00 | 47 | 1012.2 |
| 20260902224821 | 35 | 360 | 4.8 | 16.1 | 0.00 | 0.00 | 0.00 | 47 | 1012.3 |
| 20260902224722 | 35 | 360 | 6.4 | 16.1 | 0.00 | 0.00 | 0.00 | 46 | 1012.3 |
| 20260902224622 | 35 | 360 | 8.0 | 16.1 | 0.00 | 0.00 | 0.00 | 46 | 1012.3 |
| 20260902224523 | 35 | 360 | 6.4 | 16.1 | 0.00 | 0.00 | 0.00 | 47 | 1012.3 |
| 20260902224422 | 35 | 360 | 8.0 | 16.1 | 0.00 | 0.00 | 0.00 | 47 | 1012.3 |
| 20260902224328 | 35 | 360 | 6.4 | 12.9 | 0.00 | 0.00 | 0.00 | 47 | 1012.3 |
| 20260902224228 | 35 | 360 | 4.8 | 12.9 | 0.00 | 0.00 | 0.00 | 46 | 1012.3 |
| 20260902224128 | 35 | 360 | 4.8 | 12.9 | 0.00 | 0.00 | 0.00 | 47 | 1012.4 |
| 20260902224029 | 36 | 360 | 3.2 | 12.9 | 0.00 | 0.00 | 0.00 | 47 | 1012.3 |
| 20260902223931 | 36 | 360 | 4.8 | 12.9 | 0.00 | 0.00 | 0.00 | 47 | 1012.3 |
| 20260902223852 | 36 | 360 | 4.8 | 12.9 | 0.00 | 0.00 | 0.00 | 47 | 1012.3 |
| 20260902223732 | 36 | 360 | 3.2 | 14.5 | 0.00 | 0.00 | 0.00 | 46 | 1012.3 |
| 20260902223616 | 36 | 360 | 3.2 | 14.5 | 0.00 | 0.00 | 0.00 | 47 | 1012.3 |
| 20260902223517 | 35 | 360 | 3.2 | 14.5 | 0.00 | 0.00 | 0.00 | 47 | 1012.3 |
| 20260902223418 | 35 | 360 | 3.2 | 14.5 | 0.00 | 0.00 | 0.00 | 47 | 1012.3 |
| 20260902223339 | 35 | 360 | 4.8 | 14.5 | 0.00 | 0.00 | 0.00 | 47 | 1012.3 |
| 20260902223239 | 35 | 360 | 4.8 | 14.5 | 0.00 | 0.00 | 0.00 | 47 | 1012.3 |
| 20260902223118 | 35 | 360 | 4.8 | 14.5 | 0.00 | 0.00 | 0.00 | 47 | 1012.3 |
| 20260902223018 | 35 | 360 | 4.8 | 14.5 | 0.00 | 0.00 | 0.00 | 47 | 1012.3 |
| 20260902222923 | 35 | 360 | 4.8 | 14.5 | 0.00 | 0.00 | 0.00 | 47 | 1012.3 |
| 20260902222824 | 35 | 360 | 4.8 | 14.5 | 0.00 | 0.00 | 0.00 | 47 | 1012.3 |
| 20260902222724 | 35 | 360 | 4.8 | 14.5 | 0.00 | 0.00 | 0.00 | 47 | 1012.3 |
| 20260902222624 | 35 | 360 | 4.8 | 14.5 | 0.00 | 0.00 | 0.00 | 47 | 1012.3 |
| 20260902222546 | 35 | 360 | 4.8 | 14.5 | 0.00 | 0.00 | 0.00 | 47 | 1012.4 |
| 20260902222446 | 35 | 360 | 4.8 | 14.5 | 0.00 | 0.00 | 0.00 | 47 | 1012.4 |
| 20260902222325 | 36 | 360 | 4.8 | 14.5 | 0.00 | 0.00 | 0.00 | 46 | 1012.3 |
| 20260902222230 | 36 | 360 | 4.8 | 14.5 | 0.00 | 0.00 | 0.00 | 45 | 1012.4 |
| 20260902222131 | 36 | 360 | 4.8 | 9.7 | 0.00 | 0.00 | 0.00 | 46 | 1012.4 |
| 20260902222031 | 36 | 360 | 3.2 | 9.7 | 0.00 | 0.00 | 0.00 | 46 | 1012.4 |
| 20260902221932 | 36 | 360 | 4.8 | 12.9 | 0.00 | 0.00 | 0.00 | 46 | 1012.4 |
| 20260902221831 | 36 | 360 | 4.8 | 12.9 | 0.00 | 0.00 | 0.00 | 46 | 1012.3 |
| 20260902221732 | 36 | 360 | 4.8 | 12.9 | 0.00 | 0.00 | 0.00 | 46 | 1012.4 |
| 20260902221616 | 36 | 360 | 6.4 | 14.5 | 0.00 | 0.00 | 0.00 | 46 | 1012.4 |
| 20260902221517 | 36 | 360 | 6.4 | 14.5 | 0.00 | 0.00 | 0.00 | 45 | 1012.4 |
| 20260902221418 | 36 | 360 | 6.4 | 14.5 | 0.00 | 0.00 | 0.00 | 45 | 1012.4 |
| 20260902221318 | 36 | 360 | 8.0 | 14.5 | 0.00 | 0.00 | 0.00 | 45 | 1012.4 |
| 20260902221219 | 36 | 360 | 6.4 | 14.5 | 0.00 | 0.00 | 0.00 | 45 | 1012.3 |
| 20260902221119 | 36 | 360 | 4.8 | 14.5 | 0.00 | 0.00 | 0.00 | 45 | 1012.4 |
| 20260902221040 | 36 | 360 | 4.8 | 14.5 | 0.00 | 0.00 | 0.00 | 44 | 1012.4 |
| 20260902220921 | 36 | 360 | 6.4 | 14.5 | 0.00 | 0.00 | 0.00 | 44 | 1012.4 |
| 20260902220843 | 36 | 360 | 8.0 | 14.5 | 0.00 | 0.00 | 0.00 | 45 | 1012.4 |
| 20260902220716 | 36 | 360 | 4.8 | 12.9 | 0.00 | 0.00 | 0.00 | 45 | 1012.4 |
| 20260902220616 | 36 | 360 | 4.8 | 12.9 | 0.00 | 0.00 | 0.00 | 45 | 1012.5 |
| 20260902220535 | 36 | 360 | 3.2 | 9.7 | 0.00 | 0.00 | 0.00 | 45 | 1012.4 |
| 20260902220416 | 36 | 360 | 4.8 | 12.9 | 0.00 | 0.00 | 0.00 | 45 | 1012.5 |
| 20260902220316 | 36 | 360 | 6.4 | 12.9 | 0.00 | 0.00 | 0.00 | 45 | 1012.5 |
| 20260902220220 | 36 | 360 | 6.4 | 12.9 | 0.00 | 0.00 | 0.00 | 45 | 1012.5 |
| 20260902220141 | 36 | 360 | 6.4 | 12.9 | 0.00 | 0.00 | 0.00 | 46 | 1012.5 |
| 20260902220020 | 36 | 360 | 6.4 | 14.5 | 0.00 | 0.00 | 0.00 | 46 | 1012.6 |
| 20260902215922 | 36 | 360 | 4.8 | 14.5 | 0.00 | 0.00 | 0.00 | 47 | 1012.5 |
| 20260902215843 | 36 | 360 | 4.8 | 14.5 | 0.00 | 0.00 | 0.00 | 47 | 1012.5 |
| 20260902215716 | 36 | 360 | 3.2 | 14.5 | 0.00 | 0.00 | 0.00 | 47 | 1012.5 |
| 20260902215637 | 36 | 360 | 3.2 | 14.5 | 0.00 | 0.00 | 0.00 | 47 | 1012.5 |
| 20260902215513 | 35 | 360 | 4.8 | 14.5 | 0.00 | 0.00 | 0.00 | 47 | 1012.5 |
| 20260902215418 | 35 | 360 | 4.8 | 14.5 | 0.00 | 0.00 | 0.00 | 47 | 1012.6 |
| 20260902215320 | 35 | 360 | 6.4 | 14.5 | 0.00 | 0.00 | 0.00 | 47 | 1012.5 |
| 20260902215229 | 35 | 360 | 6.4 | 14.5 | 0.00 | 0.00 | 0.00 | 47 | 1012.5 |
| 20260902215132 | 35 | 360 | 4.8 | 14.5 | 0.00 | 0.00 | 0.00 | 47 | 1012.6 |
| 20260902215014 | 36 | 360 | 4.8 | 14.5 | 0.00 | 0.00 | 0.00 | 47 | 1012.5 |
| 20260902214921 | 36 | 360 | 4.8 | 14.5 | 0.00 | 0.00 | 0.00 | 47 | 1012.6 |
| 20260902214851 | 36 | 360 | 4.8 | 14.5 | 0.00 | 0.00 | 0.00 | 47 | 1012.5 |
| 20260902214733 | 36 | 360 | 6.4 | 14.5 | 0.00 | 0.00 | 0.00 | 47 | 1012.6 |
| 20260902214622 | 36 | 360 | 8.0 | 14.5 | 0.00 | 0.00 | 0.00 | 47 | 1012.6 |
| 20260902214524 | 36 | 360 | 6.4 | 14.5 | 0.00 | 0.00 | 0.00 | 47 | 1012.7 |
| 20260902214427 | 36 | 360 | 4.8 | 12.9 | 0.00 | 0.00 | 0.00 | 47 | 1012.6 |
| 20260902214330 | 36 | 360 | 6.4 | 12.9 | 0.00 | 0.00 | 0.00 | 47 | 1012.7 |
| 20260902214217 | 36 | 360 | 6.4 | 12.9 | 0.00 | 0.00 | 0.00 | 48 | 1012.6 |
| 20260902214126 | 36 | 360 | 6.4 | 12.9 | 0.00 | 0.00 | 0.00 | 47 | 1012.7 |
| 20260902214049 | 36 | 360 | 4.8 | 12.9 | 0.00 | 0.00 | 0.00 | 47 | 1012.7 |
| 20260902213938 | 36 | 360 | 6.4 | 12.9 | 0.00 | 0.00 | 0.00 | 46 | 1012.7 |
| 20260902213821 | 36 | 360 | 4.8 | 12.9 | 0.00 | 0.00 | 0.00 | 46 | 1012.7 |
| 20260902213723 | 36 | 360 | 3.2 | 12.9 | 0.00 | 0.00 | 0.00 | 46 | 1012.7 |
| 20260902213631 | 36 | 360 | 1.6 | 9.7 | 0.00 | 0.00 | 0.00 | 45 | 1012.7 |
| 20260902213540 | 36 | 360 | 3.2 | 9.7 | 0.00 | 0.00 | 0.00 | 45 | 1012.7 |
| 20260902213422 | 36 | 360 | 4.8 | 9.7 | 0.00 | 0.00 | 0.00 | 45 | 1012.7 |
| 20260902213325 | 36 | 360 | 6.4 | 9.7 | 0.00 | 0.00 | 0.00 | 45 | 1012.6 |
| 20260902213214 | 36 | 360 | 4.8 | 12.9 | 0.00 | 0.00 | 0.00 | 44 | 1012.7 |
| 20260902213115 | 36 | 360 | 3.2 | 12.9 | 0.00 | 0.00 | 0.00 | 45 | 1012.7 |
| 20260902213017 | 36 | 360 | 1.6 | 12.9 | 0.00 | 0.00 | 0.00 | 46 | 1012.7 |
| 20260902212951 | 36 | 360 | 1.6 | 12.9 | 0.00 | 0.00 | 0.00 | 46 | 1012.7 |
| 20260902212834 | 36 | 360 | 3.2 | 12.9 | 0.00 | 0.00 | 0.00 | 46 | 1012.7 |
| 20260902212742 | 36 | 360 | 3.2 | 12.9 | 0.00 | 0.00 | 0.00 | 45 | 1012.8 |
| 20260902212624 | 36 | 360 | 4.8 | 12.9 | 0.00 | 0.00 | 0.00 | 45 | 1012.8 |
| 20260902212554 | 36 | 360 | 6.4 | 12.9 | 0.00 | 0.00 | 0.00 | 45 | 1012.8 |
| 20260902212435 | 36 | 360 | 4.8 | 9.7 | 0.00 | 0.00 | 0.00 | 45 | 1012.8 |
| 20260902212317 | 36 | 360 | 4.8 | 8.0 | 0.00 | 0.00 | 0.00 | 45 | 1012.9 |
| 20260902212231 | 36 | 360 | 3.2 | 8.0 | 0.00 | 0.00 | 0.00 | 45 | 1012.8 |
| 20260902212133 | 36 | 360 | 3.2 | 8.0 | 0.00 | 0.00 | 0.00 | 44 | 1012.8 |
| 20260902212016 | 36 | 360 | 3.2 | 8.0 | 0.00 | 0.00 | 0.00 | 46 | 1012.8 |
| 20260902211926 | 36 | 360 | 4.8 | 8.0 | 0.00 | 0.00 | 0.00 | 46 | 1012.8 |
| 20260902211829 | 36 | 360 | 4.8 | 8.0 | 0.00 | 0.00 | 0.00 | 46 | 1012.8 |
| 20260902211732 | 36 | 360 | 4.8 | 8.0 | 0.00 | 0.00 | 0.00 | 46 | 1012.8 |
| 20260902211634 | 36 | 360 | 3.2 | 6.4 | 0.00 | 0.00 | 0.00 | 46 | 1012.8 |
| 20260902211527 | 36 | 360 | 3.2 | 6.4 | 0.00 | 0.00 | 0.00 | 46 | 1012.8 |
| 20260902211430 | 36 | 360 | 1.6 | 6.4 | 0.00 | 0.00 | 0.00 | 46 | 1012.9 |
| 20260902211333 | 36 | 360 | 1.6 | 6.4 | 0.00 | 0.00 | 0.00 | 46 | 1012.9 |
| 20260902211216 | 36 | 360 | 3.2 | 9.7 | 0.00 | 0.00 | 0.00 | 46 | 1012.8 |
| 20260902211125 | 36 | 360 | 3.2 | 9.7 | 0.00 | 0.00 | 0.00 | 46 | 1012.9 |
| 20260902211027 | 36 | 360 | 3.2 | 9.7 | 0.00 | 0.00 | 0.00 | 46 | 1012.9 |
| 20260902210940 | 35 | 360 | 3.2 | 9.7 | 0.00 | 0.00 | 0.00 | 46 | 1012.9 |
| 20260902210841 | 35 | 360 | 4.8 | 9.7 | 0.00 | 0.00 | 0.00 | 47 | 1012.9 |
| 20260902210749 | 35 | 360 | 4.8 | 9.7 | 0.00 | 0.00 | 0.00 | 46 | 1012.9 |
| 20260902210651 | 35 | 360 | 4.8 | 9.7 | 0.00 | 0.00 | 0.00 | 46 | 1012.9 |
| 20260902210513 | 35 | 360 | 6.4 | 9.7 | 0.00 | 0.00 | 0.00 | 46 | 1012.9 |
| 20260902210443 | 35 | 360 | 6.4 | 9.7 | 0.00 | 0.00 | 0.00 | 47 | 1012.9 |
| 20260902210326 | 35 | 360 | 6.4 | 9.7 | 0.00 | 0.00 | 0.00 | 46 | 1012.9 |
| 20260902210235 | 35 | 360 | 6.4 | 9.7 | 0.00 | 0.00 | 0.00 | 46 | 1012.9 |
| 20260902210122 | 35 | 360 | 6.4 | 12.9 | 0.00 | 0.00 | 0.00 | 46 | 1012.9 |
| 20260902210024 | 35 | 360 | 6.4 | 12.9 | 0.00 | 0.00 | 0.00 | 46 | 1013.0 |
| 20260902205926 | 35 | 360 | 6.4 | 12.9 | 0.00 | 0.00 | 0.00 | 46 | 1013.0 |
| 20260902205837 | 35 | 360 | 6.4 | 12.9 | 0.00 | 0.00 | 0.00 | 46 | 1013.0 |
| 20260902205719 | 36 | 360 | 6.4 | 12.9 | 0.00 | 0.00 | 0.00 | 46 | 1013.0 |
| 20260902205624 | 35 | 360 | 6.4 | 12.9 | 0.00 | 0.00 | 0.00 | 46 | 1013.1 |
| 20260902205554 | 35 | 360 | 6.4 | 12.9 | 0.00 | 0.00 | 0.00 | 46 | 1013.1 |
| 20260902205415 | 35 | 360 | 6.4 | 12.9 | 0.00 | 0.00 | 0.00 | 47 | 1013.1 |
| 20260902205318 | 35 | 360 | 6.4 | 12.9 | 0.00 | 0.00 | 0.00 | 46 | 1013.1 |
| 20260902205228 | 36 | 360 | 6.4 | 12.9 | 0.00 | 0.00 | 0.00 | 46 | 1013.1 |
| 20260902205130 | 36 | 360 | 6.4 | 12.9 | 0.00 | 0.00 | 0.00 | 46 | 1013.1 |
| 20260902205033 | 36 | 360 | 6.4 | 12.9 | 0.00 | 0.00 | 0.00 | 46 | 1013.1 |
| 20260902204919 | 36 | 360 | 4.8 | 9.7 | 0.00 | 0.00 | 0.00 | 46 | 1013.2 |
| 20260902204850 | 36 | 360 | 3.2 | 8.0 | 0.00 | 0.00 | 0.00 | 45 | 1013.2 |
| 20260902204738 | 36 | 360 | 1.6 | 8.0 | 0.00 | 0.00 | 0.00 | 45 | 1013.2 |
| 20260902204619 | 36 | 360 | 3.2 | 9.7 | 0.00 | 0.00 | 0.00 | 45 | 1013.2 |
| 20260902204522 | 36 | 360 | 3.2 | 9.7 | 0.00 | 0.00 | 0.00 | 45 | 1013.3 |
| 20260902204452 | 36 | 360 | 3.2 | 9.7 | 0.00 | 0.00 | 0.00 | 45 | 1013.2 |
| 20260902204314 | 36 | 360 | 4.8 | 9.7 | 0.00 | 0.00 | 0.00 | 46 | 1013.2 |
| 20260902204221 | 36 | 360 | 3.2 | 9.7 | 0.00 | 0.00 | 0.00 | 46 | 1013.3 |
| 20260902204131 | 36 | 360 | 3.2 | 9.7 | 0.00 | 0.00 | 0.00 | 46 | 1013.2 |
| 20260902204033 | 36 | 360 | 3.2 | 9.7 | 0.00 | 0.00 | 0.00 | 46 | 1013.2 |
| 20260902203916 | 36 | 360 | 3.2 | 9.7 | 0.00 | 0.00 | 0.00 | 46 | 1013.3 |
| 20260902203819 | 36 | 360 | 3.2 | 9.7 | 0.00 | 0.00 | 0.00 | 47 | 1013.3 |
| 20260902203722 | 36 | 360 | 3.2 | 8.0 | 0.00 | 0.00 | 0.00 | 49 | 1013.2 |
| 20260902203635 | 36 | 360 | 1.6 | 8.0 | 0.00 | 0.00 | 0.00 | 47 | 1013.3 |
| 20260902203538 | 35 | 360 | 1.6 | 8.0 | 0.00 | 0.00 | 0.00 | 46 | 1013.3 |
| 20260902203420 | 35 | 360 | 1.6 | 8.0 | 0.00 | 0.00 | 0.00 | 46 | 1013.3 |
| 20260902203330 | 35 | 360 | 3.2 | 8.0 | 0.00 | 0.00 | 0.00 | 46 | 1013.3 |
| 20260902203232 | 35 | 360 | 3.2 | 8.0 | 0.00 | 0.00 | 0.00 | 46 | 1013.3 |
| 20260902203115 | 36 | 360 | 4.8 | 9.7 | 0.00 | 0.00 | 0.00 | 46 | 1013.3 |
| 20260902203022 | 36 | 360 | 3.2 | 9.7 | 0.00 | 0.00 | 0.00 | 46 | 1013.3 |
| 20260902202932 | 36 | 360 | 3.2 | 9.7 | 0.00 | 0.00 | 0.00 | 46 | 1013.4 |
| 20260902202815 | 36 | 360 | 1.6 | 9.7 | 0.00 | 0.00 | 0.00 | 46 | 1013.4 |
| 20260902202717 | 35 | 360 | 1.6 | 9.7 | 0.00 | 0.00 | 0.00 | 47 | 1013.4 |
| 20260902202620 | 35 | 360 | 3.2 | 9.7 | 0.00 | 0.00 | 0.00 | 47 | 1013.4 |
| 20260902202530 | 35 | 360 | 4.8 | 9.7 | 0.00 | 0.00 | 0.00 | 47 | 1013.4 |
| 20260902202437 | 35 | 360 | 6.4 | 9.7 | 0.00 | 0.00 | 0.00 | 46 | 1013.4 |
| 20260902202318 | 35 | 360 | 6.4 | 9.7 | 0.00 | 0.00 | 0.00 | 46 | 1013.4 |
| 20260902202229 | 35 | 360 | 4.8 | 9.7 | 0.00 | 0.00 | 0.00 | 46 | 1013.4 |
| 20260902202131 | 36 | 360 | 6.4 | 14.5 | 0.00 | 0.00 | 0.00 | 45 | 1013.4 |
| 20260902202014 | 36 | 360 | 4.8 | 14.5 | 0.00 | 0.00 | 0.00 | 46 | 1013.5 |
| 20260902201917 | 36 | 360 | 4.8 | 14.5 | 0.00 | 0.00 | 0.00 | 46 | 1013.5 |
| 20260902201833 | 36 | 360 | 3.2 | 14.5 | 0.00 | 0.00 | 0.00 | 45 | 1013.5 |
| 20260902201735 | 36 | 360 | 1.6 | 14.5 | 0.00 | 0.00 | 0.00 | 45 | 1013.5 |
| 20260902201617 | 36 | 360 | 4.8 | 14.5 | 0.00 | 0.00 | 0.00 | 45 | 1013.5 |
| 20260902201520 | 36 | 360 | 6.4 | 14.5 | 0.00 | 0.00 | 0.00 | 45 | 1013.5 |
| 20260902201424 | 36 | 360 | 8.0 | 14.5 | 0.00 | 0.00 | 0.00 | 45 | 1013.6 |
| 20260902201334 | 36 | 360 | 8.0 | 14.5 | 0.00 | 0.00 | 0.00 | 45 | 1013.6 |
| 20260902201241 | 36 | 360 | 6.4 | 14.5 | 0.00 | 0.00 | 0.00 | 44 | 1013.6 |
| 20260902201122 | 36 | 360 | 4.8 | 14.5 | 0.00 | 0.00 | 0.00 | 44 | 1013.7 |
| 20260902201030 | 36 | 360 | 3.2 | 8.0 | 0.00 | 0.00 | 0.00 | 44 | 1013.6 |
| 20260902200914 | 36 | 360 | 3.2 | 9.7 | 0.00 | 0.00 | 0.00 | 44 | 1013.7 |
| 20260902200816 | 36 | 360 | 3.2 | 9.7 | 0.00 | 0.00 | 0.00 | 44 | 1013.7 |
| 20260902200726 | 36 | 360 | 4.8 | 9.7 | 0.00 | 0.00 | 0.00 | 44 | 1013.7 |
| 20260902200649 | 36 | 360 | 3.2 | 9.7 | 0.00 | 0.00 | 0.00 | 44 | 1013.7 |
| 20260902200515 | 36 | 360 | 3.2 | 9.7 | 0.00 | 0.00 | 0.00 | 44 | 1013.8 |
| 20260902200425 | 36 | 360 | 1.6 | 9.7 | 0.00 | 0.00 | 0.00 | 44 | 1013.7 |
| 20260902200328 | 36 | 360 | 3.2 | 9.7 | 0.00 | 0.00 | 0.00 | 45 | 1013.7 |
| 20260902200258 | 36 | 360 | 3.2 | 9.7 | 0.00 | 0.00 | 0.00 | 44 | 1013.8 |
| 20260902200119 | 36 | 360 | 3.2 | 9.7 | 0.00 | 0.00 | 0.00 | 45 | 1013.8 |
| 20260902200021 | 36 | 360 | 3.2 | 9.7 | 0.00 | 0.00 | 0.00 | 46 | 1013.9 |
| 20260902195931 | 36 | 360 | 1.6 | 9.7 | 0.00 | 0.00 | 0.00 | 46 | 1013.9 |
| 20260902195818 | 36 | 360 | 1.6 | 9.7 | 0.00 | 0.00 | 0.00 | 45 | 1013.9 |
| 20260902195720 | 36 | 360 | 1.6 | 9.7 | 0.00 | 0.00 | 0.00 | 46 | 1013.9 |
| 20260902195622 | 36 | 360 | 3.2 | 9.7 | 0.00 | 0.00 | 0.00 | 46 | 1013.9 |
| 20260902195534 | 36 | 360 | 3.2 | 9.7 | 0.00 | 0.00 | 0.00 | 46 | 1014.0 |
| 20260902195435 | 36 | 360 | 4.8 | 9.7 | 0.00 | 0.00 | 0.00 | 45 | 1013.9 |
| 20260902195320 | 36 | 360 | 4.8 | 8.0 | 0.00 | 0.00 | 0.00 | 45 | 1014.0 |
| 20260902195223 | 36 | 360 | 4.8 | 8.0 | 0.00 | 0.00 | 0.00 | 45 | 1014.0 |
| 20260902195153 | 36 | 360 | 4.8 | 8.0 | 0.00 | 0.00 | 0.00 | 44 | 1014.0 |
| 20260902195015 | 36 | 360 | 4.8 | 8.0 | 0.00 | 0.00 | 0.00 | 44 | 1014.0 |
| 20260902194917 | 36 | 360 | 3.2 | 8.0 | 0.00 | 0.00 | 0.00 | 44 | 1014.0 |
| 20260902194820 | 36 | 360 | 3.2 | 6.4 | 0.00 | 0.00 | 0.00 | 44 | 1014.1 |
| 20260902194729 | 37 | 360 | 3.2 | 6.4 | 0.00 | 0.00 | 0.00 | 44 | 1014.1 |
| 20260902194636 | 37 | 360 | 3.2 | 6.4 | 0.00 | 0.00 | 0.00 | 43 | 1014.0 |
| 20260902194518 | 37 | 360 | 3.2 | 6.4 | 0.00 | 0.00 | 0.00 | 43 | 1014.1 |
| 20260902194428 | 37 | 360 | 1.6 | 6.4 | 0.00 | 0.00 | 0.00 | 43 | 1014.1 |
| 20260902194331 | 37 | 360 | 1.6 | 6.4 | 0.00 | 0.00 | 0.00 | 42 | 1014.0 |
| 20260902194213 | 37 | 360 | 1.6 | 6.4 | 0.00 | 0.00 | 0.00 | 42 | 1014.1 |
| 20260902194116 | 37 | 360 | 3.2 | 6.4 | 0.00 | 0.00 | 0.00 | 41 | 1014.1 |
| 20260902194030 | 37 | 360 | 3.2 | 6.4 | 0.00 | 0.00 | 0.00 | 41 | 1014.1 |
| 20260902193953 | 37 | 360 | 3.2 | 6.4 | 0.00 | 0.00 | 0.00 | 41 | 1014.2 |
| 20260902193815 | 37 | 360 | 3.2 | 4.8 | 0.00 | 0.00 | 0.00 | 41 | 1014.2 |
| 20260902193725 | 37 | 360 | 1.6 | 4.8 | 0.00 | 0.00 | 0.00 | 41 | 1014.2 |
| 20260902193647 | 37 | 360 | 1.6 | 4.8 | 0.00 | 0.00 | 0.00 | 43 | 1014.2 |
| 20260902193536 | 37 | 360 | 1.6 | 4.8 | 0.00 | 0.00 | 0.00 | 43 | 1014.2 |
| 20260902193422 | 37 | 360 | 3.2 | 4.8 | 0.00 | 0.00 | 0.00 | 44 | 1014.1 |
| 20260902193325 | 37 | 360 | 3.2 | 6.4 | 0.00 | 0.00 | 0.00 | 44 | 1014.3 |
| 20260902193255 | 37 | 360 | 3.2 | 6.4 | 0.00 | 0.00 | 0.00 | 44 | 1014.2 |
| 20260902193117 | 37 | 360 | 3.2 | 6.4 | 0.00 | 0.00 | 0.00 | 43 | 1014.3 |
| 20260902193019 | 37 | 360 | 3.2 | 6.4 | 0.00 | 0.00 | 0.00 | 44 | 1014.3 |
| 20260902192922 | 37 | 360 | 3.2 | 6.4 | 0.00 | 0.00 | 0.00 | 44 | 1014.3 |
| 20260902192825 | 37 | 360 | 3.2 | 6.4 | 0.00 | 0.00 | 0.00 | 43 | 1014.3 |
| 20260902192738 | 37 | 360 | 3.2 | 6.4 | 0.00 | 0.00 | 0.00 | 43 | 1014.3 |
| 20260902192620 | 37 | 360 | 3.2 | 8.0 | 0.00 | 0.00 | 0.00 | 43 | 1014.3 |
| 20260902192523 | 37 | 360 | 3.2 | 8.0 | 0.00 | 0.00 | 0.00 | 43 | 1014.3 |
| 20260902192433 | 37 | 360 | 3.2 | 8.0 | 0.00 | 0.00 | 0.00 | 43 | 1014.3 |
| 20260902192315 | 37 | 360 | 3.2 | 8.0 | 0.00 | 0.00 | 0.00 | 43 | 1014.3 |
| 20260902192217 | 37 | 360 | 3.2 | 8.0 | 0.00 | 0.00 | 0.00 | 42 | 1014.3 |
| 20260902192131 | 37 | 360 | 3.2 | 8.0 | 0.00 | 0.00 | 0.00 | 42 | 1014.4 |
| 20260902192033 | 37 | 360 | 3.2 | 8.0 | 0.00 | 0.00 | 0.00 | 42 | 1014.3 |
| 20260902191943 | 37 | 360 | 3.2 | 8.0 | 0.00 | 0.00 | 0.00 | 42 | 1014.3 |
| 20260902191824 | 37 | 360 | 3.2 | 8.0 | 0.00 | 0.00 | 0.00 | 42 | 1014.4 |
| 20260902191754 | 37 | 360 | 3.2 | 8.0 | 0.00 | 0.00 | 0.00 | 42 | 1014.3 |
| 20260902191616 | 37 | 360 | 3.2 | 8.0 | 0.00 | 0.00 | 0.00 | 42 | 1014.4 |
| 20260902191518 | 37 | 360 | 3.2 | 8.0 | 0.00 | 0.00 | 0.00 | 42 | 1014.4 |
| 20260902191425 | 37 | 360 | 3.2 | 8.0 | 0.00 | 0.00 | 0.00 | 42 | 1014.6 |
| 20260902191314 | 37 | 360 | 3.2 | 9.7 | 0.00 | 0.00 | 0.00 | 42 | 1014.5 |
| 20260902191214 | 37 | 360 | 3.2 | 9.7 | 0.00 | 0.00 | 0.00 | 43 | 1014.5 |
| 20260902191124 | 37 | 360 | 3.2 | 9.7 | 0.00 | 0.00 | 0.00 | 42 | 1014.6 |
| 20260902191027 | 37 | 360 | 3.2 | 9.7 | 0.00 | 0.00 | 0.00 | 42 | 1014.6 |
| 20260902190929 | 37 | 360 | 4.8 | 9.7 | 0.00 | 0.00 | 0.00 | 41 | 1014.6 |
| 20260902190838 | 38 | 360 | 4.8 | 9.7 | 0.00 | 0.00 | 0.00 | 41 | 1014.6 |
| 20260902190743 | 38 | 360 | 4.8 | 9.7 | 0.00 | 0.00 | 0.00 | 40 | 1014.6 |
| 20260902190629 | 38 | 360 | 4.8 | 9.7 | 0.00 | 0.00 | 0.00 | 40 | 1014.7 |
| 20260902190530 | 38 | 360 | 4.8 | 9.7 | 0.00 | 0.00 | 0.00 | 40 | 1014.7 |
| 20260902190418 | 39 | 360 | 4.8 | 9.7 | 0.00 | 0.00 | 0.00 | 39 | 1014.7 |
| 20260902190321 | 39 | 360 | 4.8 | 9.7 | 0.00 | 0.00 | 0.00 | 40 | 1014.7 |
| 20260902190222 | 39 | 360 | 4.8 | 9.7 | 0.00 | 0.00 | 0.00 | 39 | 1014.7 |
| 20260902190130 | 39 | 360 | 3.2 | 8.0 | 0.00 | 0.00 | 0.00 | 39 | 1014.6 |
| 20260902190033 | 39 | 360 | 1.6 | 8.0 | 0.00 | 0.00 | 0.00 | 39 | 1014.6 |
| 20260902185918 | 39 | 360 | 1.6 | 6.4 | 0.00 | 0.00 | 0.00 | 39 | 1014.6 |
| 20260902185827 | 39 | 360 | 1.6 | 6.4 | 0.00 | 0.00 | 0.00 | 39 | 1014.7 |
| 20260902185723 | 39 | 263 | 3.2 | 6.4 | 0.00 | 0.00 | 0.00 | 40 | 1014.6 |
| 20260902185631 | 38 | 265 | 3.2 | 6.4 | 0.00 | 0.00 | 0.00 | 39 | 1014.7 |
| 20260902185533 | 38 | 360 | 3.2 | 6.4 | 0.00 | 0.00 | 0.00 | 39 | 1014.7 |
| 20260902185442 | 38 | 360 | 3.2 | 6.4 | 0.00 | 0.00 | 0.00 | 39 | 1014.7 |
| 20260902185316 | 38 | 360 | 3.2 | 6.4 | 0.00 | 0.00 | 0.00 | 39 | 1014.8 |
| 20260902185248 | 39 | 360 | 4.8 | 6.4 | 0.00 | 0.00 | 0.00 | 39 | 1014.8 |
| 20260902185136 | 39 | 360 | 4.8 | 6.4 | 0.00 | 0.00 | 0.00 | 38 | 1014.8 |
| 20260902185017 | 40 | 360 | 3.2 | 6.4 | 0.00 | 0.00 | 0.00 | 38 | 1014.9 |
| 20260902184919 | 40 | 360 | 3.2 | 6.4 | 0.00 | 0.00 | 0.00 | 38 | 1015.0 |
| 20260902184820 | 40 | 360 | 3.2 | 6.4 | 0.00 | 0.00 | 0.00 | 38 | 1014.9 |
| 20260902184749 | 40 | 360 | 3.2 | 8.0 | 0.00 | 0.00 | 0.00 | 37 | 1014.9 |
| 20260902184630 | 40 | 360 | 3.2 | 8.0 | 0.00 | 0.00 | 0.00 | 38 | 1014.9 |
| 20260902184524 | 40 | 360 | 3.2 | 8.0 | 0.00 | 0.00 | 0.00 | 38 | 1014.9 |
| 20260902184426 | 40 | 360 | 3.2 | 8.0 | 0.00 | 0.00 | 0.00 | 39 | 1015.0 |
| 20260902184329 | 40 | 360 | 3.2 | 8.0 | 0.00 | 0.00 | 0.00 | 39 | 1015.0 |
| 20260902184237 | 40 | 360 | 3.2 | 9.7 | 0.00 | 0.00 | 0.00 | 39 | 1014.9 |
| 20260902184137 | 39 | 360 | 4.8 | 9.7 | 0.00 | 0.00 | 0.00 | 39 | 1015.0 |
| 20260902184017 | 39 | 360 | 3.2 | 9.7 | 0.00 | 0.00 | 0.00 | 40 | 1014.9 |
| 20260902183925 | 38 | 360 | 3.2 | 9.7 | 0.00 | 0.00 | 0.00 | 40 | 1015.0 |
| 20260902183833 | 38 | 360 | 3.2 | 9.7 | 0.00 | 0.00 | 0.00 | 40 | 1014.9 |
| 20260902183717 | 38 | 257 | 3.2 | 9.7 | 0.00 | 0.00 | 0.00 | 40 | 1015.0 |
| 20260902183618 | 38 | 360 | 4.8 | 9.7 | 0.00 | 0.00 | 0.00 | 40 | 1015.0 |
| 20260902183527 | 39 | 360 | 4.8 | 9.7 | 0.00 | 0.00 | 0.00 | 38 | 1015.0 |
| 20260902183427 | 39 | 360 | 3.2 | 9.7 | 0.00 | 0.00 | 0.00 | 38 | 1015.0 |
| 20260902183337 | 40 | 360 | 3.2 | 9.7 | 0.00 | 0.00 | 0.00 | 38 | 1015.1 |
| 20260902183220 | 40 | 360 | 3.2 | 9.7 | 0.00 | 0.00 | 0.00 | 38 | 1015.1 |
| 20260902183117 | 40 | 360 | 3.2 | 9.7 | 0.00 | 0.00 | 0.00 | 37 | 1015.0 |
| 20260902183029 | 40 | 360 | 3.2 | 9.7 | 0.00 | 0.00 | 0.00 | 37 | 1015.1 |
| 20260902182929 | 40 | 360 | 3.2 | 16.1 | 0.00 | 0.00 | 0.00 | 37 | 1015.1 |
| 20260902182817 | 41 | 360 | 3.2 | 16.1 | 0.00 | 0.00 | 0.00 | 36 | 1015.1 |
| 20260902182717 | 41 | 360 | 1.6 | 16.1 | 0.00 | 0.00 | 0.00 | 36 | 1015.1 |
| 20260902182646 | 41 | 360 | 1.6 | 16.1 | 0.00 | 0.00 | 0.00 | 37 | 1015.2 |
| 20260902182524 | 41 | 360 | 3.2 | 16.1 | 0.00 | 0.00 | 0.00 | 37 | 1015.1 |
| 20260902182433 | 41 | 360 | 4.8 | 16.1 | 0.00 | 0.00 | 0.00 | 37 | 1015.1 |
| 20260902182353 | 41 | 360 | 4.8 | 16.1 | 0.00 | 0.00 | 0.00 | 37 | 1015.1 |
| 20260902182224 | 41 | 360 | 3.2 | 16.1 | 0.00 | 0.00 | 0.00 | 37 | 1015.2 |
| 20260902182120 | 41 | 216 | 3.2 | 14.5 | 0.00 | 0.00 | 0.00 | 37 | 1015.2 |
| 20260902182028 | 41 | 360 | 1.6 | 6.4 | 0.00 | 0.00 | 0.00 | 37 | 1015.2 |
| 20260902181936 | 41 | 360 | 1.6 | 6.4 | 0.00 | 0.00 | 0.00 | 37 | 1015.2 |
| 20260902181833 | 40 | 360 | 3.2 | 6.4 | 0.00 | 0.00 | 0.00 | 38 | 1015.2 |
| 20260902181721 | 40 | 360 | 3.2 | 6.4 | 0.00 | 0.00 | 0.00 | 38 | 1015.2 |
| 20260902181642 | 40 | 360 | 3.2 | 6.4 | 0.00 | 0.00 | 0.00 | 39 | 1015.2 |
| 20260902181529 | 40 | 360 | 3.2 | 6.4 | 0.00 | 0.00 | 0.00 | 39 | 1015.3 |
| 20260902181436 | 40 | 360 | 3.2 | 6.4 | 0.00 | 0.00 | 0.00 | 39 | 1015.3 |
| 20260902181315 | 39 | 360 | 1.6 | 9.7 | 0.00 | 0.00 | 0.00 | 41 | 1015.4 |
| 20260902181220 | 38 | 360 | 1.6 | 9.7 | 0.00 | 0.00 | 0.00 | 41 | 1015.3 |
| 20260902181149 | 38 | 360 | 3.2 | 9.7 | 0.00 | 0.00 | 0.00 | 42 | 1015.4 |
| 20260902181031 | 37 | 360 | 3.2 | 9.7 | 0.00 | 0.00 | 0.00 | 43 | 1015.4 |
| 20260902180914 | 37 | 360 | 1.6 | 12.9 | 0.00 | 0.00 | 0.00 | 43 | 1015.4 |
| 20260902180821 | 37 | 360 | 3.2 | 12.9 | 0.00 | 0.00 | 0.00 | 43 | 1015.4 |
| 20260902180750 | 36 | 360 | 4.8 | 12.9 | 0.00 | 0.00 | 0.00 | 44 | 1015.4 |
| 20260902180629 | 36 | 360 | 4.8 | 12.9 | 0.00 | 0.00 | 0.00 | 44 | 1015.5 |
| 20260902180539 | 36 | 360 | 4.8 | 12.9 | 0.00 | 0.00 | 0.00 | 44 | 1015.4 |
| 20260902180424 | 36 | 360 | 4.8 | 16.1 | 0.00 | 0.00 | 0.00 | 44 | 1015.4 |
| 20260902180326 | 36 | 360 | 6.4 | 16.1 | 0.00 | 0.00 | 0.00 | 45 | 1015.5 |
| 20260902180236 | 36 | 360 | 6.4 | 16.1 | 0.00 | 0.00 | 0.00 | 45 | 1015.5 |
| 20260902180131 | 36 | 360 | 6.4 | 16.1 | 0.00 | 0.00 | 0.00 | 44 | 1015.5 |
| 20260902180035 | 36 | 360 | 4.8 | 16.1 | 0.00 | 0.00 | 0.00 | 46 | 1015.5 |
| 20260902175918 | 36 | 360 | 6.4 | 16.1 | 0.00 | 0.00 | 0.00 | 46 | 1015.5 |
| 20260902175822 | 36 | 360 | 8.0 | 16.1 | 0.00 | 0.00 | 0.00 | 45 | 1015.5 |
| 20260902175725 | 36 | 360 | 8.0 | 16.1 | 0.00 | 0.00 | 0.00 | 45 | 1015.6 |
| 20260902175637 | 36 | 360 | 6.4 | 16.1 | 0.00 | 0.00 | 0.00 | 44 | 1015.6 |
| 20260902175518 | 36 | 360 | 6.4 | 14.5 | 0.00 | 0.00 | 0.00 | 44 | 1015.6 |
| 20260902175421 | 36 | 360 | 8.0 | 14.5 | 0.00 | 0.00 | 0.00 | 44 | 1015.7 |
| 20260902175329 | 36 | 360 | 6.4 | 14.5 | 0.00 | 0.00 | 0.00 | 44 | 1015.7 |
| 20260902175232 | 37 | 360 | 4.8 | 14.5 | 0.00 | 0.00 | 0.00 | 43 | 1015.7 |
| 20260902175115 | 37 | 360 | 4.8 | 12.9 | 0.00 | 0.00 | 0.00 | 42 | 1015.8 |
| 20260902175025 | 37 | 360 | 6.4 | 12.9 | 0.00 | 0.00 | 0.00 | 42 | 1015.8 |
| 20260902174932 | 37 | 360 | 6.4 | 12.9 | 0.00 | 0.00 | 0.00 | 42 | 1015.8 |
| 20260902174901 | 37 | 360 | 6.4 | 14.5 | 0.00 | 0.00 | 0.00 | 42 | 1015.8 |
| 20260902174723 | 37 | 360 | 3.2 | 16.1 | 0.00 | 0.00 | 0.00 | 43 | 1015.8 |
| 20260902174626 | 37 | 360 | 3.2 | 16.1 | 0.00 | 0.00 | 0.00 | 43 | 1015.9 |
| 20260902174528 | 37 | 360 | 3.2 | 16.1 | 0.00 | 0.00 | 0.00 | 43 | 1015.8 |
| 20260902174439 | 37 | 360 | 3.2 | 16.1 | 0.00 | 0.00 | 0.00 | 43 | 1015.8 |
| 20260902174345 | 37 | 360 | 4.8 | 16.1 | 0.00 | 0.00 | 0.00 | 43 | 1015.8 |
| 20260902174227 | 36 | 360 | 8.0 | 16.1 | 0.00 | 0.00 | 0.00 | 43 | 1015.9 |
| 20260902174137 | 37 | 360 | 8.0 | 16.1 | 0.00 | 0.00 | 0.00 | 42 | 1015.9 |
| 20260902174040 | 37 | 177 | 4.8 | 16.1 | 0.00 | 0.00 | 0.00 | 42 | 1015.9 |
| 20260902173921 | 37 | 360 | 4.8 | 16.1 | 0.00 | 0.00 | 0.00 | 42 | 1015.9 |
| 20260902173824 | 37 | 360 | 3.2 | 16.1 | 0.00 | 0.00 | 0.00 | 43 | 1015.9 |
| 20260902173713 | 37 | 360 | 4.8 | 16.1 | 0.00 | 0.00 | 0.00 | 44 | 1016.0 |
| 20260902173540 | 37 | 360 | 6.4 | 16.1 | 0.00 | 0.00 | 0.00 | 43 | 1016.0 |
| 20260902173422 | 37 | 360 | 4.8 | 14.5 | 0.00 | 0.00 | 0.00 | 44 | 1015.9 |
| 20260902173324 | 37 | 360 | 3.2 | 14.5 | 0.00 | 0.00 | 0.00 | 44 | 1015.9 |
| 20260902173234 | 36 | 360 | 3.2 | 14.5 | 0.00 | 0.00 | 0.00 | 45 | 1016.1 |
| 20260902173137 | 36 | 360 | 3.2 | 14.5 | 0.00 | 0.00 | 0.00 | 45 | 1016.1 |
| 20260902173045 | 36 | 360 | 6.4 | 14.5 | 0.00 | 0.00 | 0.00 | 44 | 1016.1 |
| 20260902172931 | 36 | 360 | 8.0 | 14.5 | 0.00 | 0.00 | 0.00 | 44 | 1016.0 |
| 20260902172815 | 36 | 360 | 8.0 | 14.5 | 0.00 | 0.00 | 0.00 | 44 | 1016.0 |
| 20260902172717 | 37 | 360 | 6.4 | 12.9 | 0.00 | 0.00 | 0.00 | 43 | 1016.1 |
| 20260902172627 | 37 | 360 | 4.8 | 12.9 | 0.00 | 0.00 | 0.00 | 42 | 1016.2 |
| 20260902172529 | 37 | 360 | 3.2 | 12.9 | 0.00 | 0.00 | 0.00 | 44 | 1016.0 |
| 20260902172432 | 37 | 360 | 3.2 | 12.9 | 0.00 | 0.00 | 0.00 | 44 | 1016.0 |
| 20260902172319 | 36 | 360 | 4.8 | 12.9 | 0.00 | 0.00 | 0.00 | 44 | 1016.1 |
| 20260902172229 | 37 | 360 | 6.4 | 12.9 | 0.00 | 0.00 | 0.00 | 43 | 1016.2 |
| 20260902172151 | 37 | 360 | 6.4 | 12.9 | 0.00 | 0.00 | 0.00 | 43 | 1016.2 |
| 20260902172013 | 37 | 360 | 6.4 | 12.9 | 0.00 | 0.00 | 0.00 | 42 | 1016.2 |
| 20260902171923 | 37 | 360 | 6.4 | 12.9 | 0.00 | 0.00 | 0.00 | 42 | 1016.2 |
| 20260902171846 | 37 | 135 | 4.8 | 9.7 | 0.00 | 0.00 | 0.00 | 41 | 1016.2 |
| 20260902171735 | 38 | 360 | 4.8 | 9.7 | 0.00 | 0.00 | 0.00 | 40 | 1016.2 |
| 20260902171641 | 38 | 360 | 3.2 | 9.7 | 0.00 | 0.00 | 0.00 | 40 | 1016.3 |
| 20260902171549 | 39 | 360 | 1.6 | 8.0 | 0.00 | 0.00 | 0.00 | 40 | 1016.3 |
| 20260902171431 | 38 | 360 | 1.6 | 3.2 | 0.00 | 0.00 | 0.00 | 41 | 1016.3 |
| 20260902171342 | 38 | 360 | 1.6 | 6.4 | 0.00 | 0.00 | 0.00 | 41 | 1016.3 |
| 20260902171223 | 38 | 360 | 1.6 | 8.0 | 0.00 | 0.00 | 0.00 | 41 | 1016.3 |
| 20260902171126 | 38 | 360 | 1.6 | 8.0 | 0.00 | 0.00 | 0.00 | 41 | 1016.4 |
| 20260902171036 | 38 | 360 | 1.6 | 8.0 | 0.00 | 0.00 | 0.00 | 40 | 1016.4 |
| 20260902170922 | 38 | 360 | 1.6 | 8.0 | 0.00 | 0.00 | 0.00 | 40 | 1016.4 |
| 20260902170845 | 38 | 360 | 1.6 | 9.7 | 0.00 | 0.00 | 0.00 | 41 | 1016.4 |
| 20260902170734 | 38 | 360 | 1.6 | 9.7 | 0.00 | 0.00 | 0.00 | 41 | 1016.4 |
| 20260902170637 | 38 | 360 | 3.2 | 9.7 | 0.00 | 0.00 | 0.00 | 42 | 1016.5 |
| 20260902170520 | 37 | 360 | 3.2 | 12.9 | 0.00 | 0.00 | 0.00 | 42 | 1016.4 |
| 20260902170423 | 37 | 360 | 4.8 | 16.1 | 0.00 | 0.00 | 0.00 | 42 | 1016.5 |
| 20260902170331 | 37 | 360 | 4.8 | 16.1 | 0.00 | 0.00 | 0.00 | 42 | 1016.5 |
| 20260902170217 | 38 | 360 | 4.8 | 16.1 | 0.00 | 0.00 | 0.00 | 41 | 1016.5 |
| 20260902170120 | 38 | 360 | 4.8 | 16.1 | 0.00 | 0.00 | 0.00 | 41 | 1016.5 |
| 20260902170050 | 38 | 360 | 3.2 | 16.1 | 0.00 | 0.00 | 0.00 | 41 | 1016.5 |
| 20260902165932 | 38 | 360 | 4.8 | 16.1 | 0.00 | 0.00 | 0.00 | 42 | 1016.5 |
| 20260902165815 | 38 | 360 | 6.4 | 14.5 | 0.00 | 0.00 | 0.00 | 43 | 1016.6 |
| 20260902165718 | 38 | 360 | 8.0 | 14.5 | 0.00 | 0.00 | 0.00 | 42 | 1016.6 |
| 20260902165631 | 38 | 360 | 6.4 | 14.5 | 0.00 | 0.00 | 0.00 | 42 | 1016.5 |
| 20260902165514 | 38 | 360 | 4.8 | 9.7 | 0.00 | 0.00 | 0.00 | 42 | 1016.5 |
| 20260902165417 | 38 | 360 | 3.2 | 9.7 | 0.00 | 0.00 | 0.00 | 42 | 1016.5 |
| 20260902165326 | 38 | 360 | 3.2 | 8.0 | 0.00 | 0.00 | 0.00 | 43 | 1016.5 |
| 20260902165229 | 38 | 360 | 3.2 | 8.0 | 0.00 | 0.00 | 0.00 | 43 | 1016.5 |
| 20260902165132 | 38 | 360 | 3.2 | 8.0 | 0.00 | 0.00 | 0.00 | 43 | 1016.6 |
| 20260902165046 | 37 | 360 | 3.2 | 12.9 | 0.00 | 0.00 | 0.00 | 44 | 1016.6 |
| 20260902164929 | 37 | 360 | 3.2 | 12.9 | 0.00 | 0.00 | 0.00 | 43 | 1016.6 |
| 20260902164836 | 37 | 360 | 3.2 | 12.9 | 0.00 | 0.00 | 0.00 | 44 | 1016.6 |
| 20260902164719 | 37 | 360 | 3.2 | 12.9 | 0.00 | 0.00 | 0.00 | 44 | 1016.7 |
| 20260902164621 | 37 | 360 | 4.8 | 12.9 | 0.00 | 0.00 | 0.00 | 44 | 1016.6 |
| 20260902164530 | 37 | 360 | 4.8 | 12.9 | 0.00 | 0.00 | 0.00 | 43 | 1016.7 |
| 20260902164414 | 37 | 360 | 4.8 | 12.9 | 0.00 | 0.00 | 0.00 | 43 | 1016.7 |
| 20260902163633 | 36 | 360 | 3.2 | 9.7 | 0.00 | 0.00 | 0.00 | 46 | 1016.7 |
| 20260902163517 | 36 | 360 | 3.2 | 12.9 | 0.00 | 0.00 | 0.00 | 46 | 1016.7 |
| 20260902163437 | 36 | 360 | 3.2 | 12.9 | 0.00 | 0.00 | 0.00 | 47 | 1016.7 |
| 20260902163317 | 36 | 360 | 1.6 | 16.1 | 0.00 | 0.00 | 0.00 | 47 | 1016.7 |
| 20260902163217 | 36 | 360 | 1.6 | 16.1 | 0.00 | 0.00 | 0.00 | 48 | 1016.7 |
| 20260902163118 | 35 | 360 | 1.6 | 16.1 | 0.00 | 0.00 | 0.00 | 49 | 1016.7 |
| 20260902163019 | 35 | 360 | 3.2 | 16.1 | 0.00 | 0.00 | 0.00 | 49 | 1016.7 |
| 20260902162918 | 35 | 360 | 4.8 | 16.1 | 0.00 | 0.00 | 0.00 | 48 | 1016.8 |
| 20260902162838 | 35 | 360 | 6.4 | 16.1 | 0.00 | 0.00 | 0.00 | 48 | 1016.8 |
| 20260902162720 | 35 | 360 | 6.4 | 16.1 | 0.00 | 0.00 | 0.00 | 48 | 1016.8 |
| 20260902162642 | 35 | 360 | 6.4 | 16.1 | 0.00 | 0.00 | 0.00 | 48 | 1016.8 |
| 20260902162520 | 35 | 360 | 6.4 | 16.1 | 0.00 | 0.00 | 0.00 | 47 | 1016.8 |
| 20260902162418 | 35 | 360 | 4.8 | 14.5 | 0.00 | 0.00 | 0.00 | 47 | 1016.8 |
| 20260902162318 | 36 | 360 | 3.2 | 9.7 | 0.00 | 0.00 | 0.00 | 47 | 1016.8 |
| 20260902162220 | 36 | 360 | 3.2 | 8.0 | 0.00 | 0.00 | 0.00 | 46 | 1016.8 |
| 20260902162122 | 36 | 360 | 4.8 | 8.0 | 0.00 | 0.00 | 0.00 | 46 | 1016.9 |
| 20260902162022 | 36 | 360 | 4.8 | 9.7 | 0.00 | 0.00 | 0.00 | 46 | 1016.9 |
| 20260902161925 | 36 | 360 | 3.2 | 9.7 | 0.00 | 0.00 | 0.00 | 46 | 1016.8 |
| 20260902161824 | 36 | 360 | 3.2 | 9.7 | 0.00 | 0.00 | 0.00 | 46 | 1016.8 |
| 20260902161725 | 36 | 360 | 3.2 | 9.7 | 0.00 | 0.00 | 0.00 | 46 | 1016.8 |
| 20260902161625 | 36 | 360 | 3.2 | 9.7 | 0.00 | 0.00 | 0.00 | 47 | 1016.8 |
| 20260902161525 | 36 | 360 | 4.8 | 9.7 | 0.00 | 0.00 | 0.00 | 48 | 1016.9 |
| 20260902161424 | 36 | 360 | 4.8 | 9.7 | 0.00 | 0.00 | 0.00 | 47 | 1016.8 |
| 20260902161322 | 37 | 360 | 4.8 | 9.7 | 0.00 | 0.00 | 0.00 | 46 | 1016.9 |
| 20260902161222 | 37 | 360 | 3.2 | 9.7 | 0.00 | 0.00 | 0.00 | 46 | 1016.8 |
| 20260902161125 | 37 | 360 | 3.2 | 8.0 | 0.00 | 0.00 | 0.00 | 47 | 1016.8 |
| 20260902161024 | 37 | 360 | 3.2 | 8.0 | 0.00 | 0.00 | 0.00 | 48 | 1016.8 |
| 20260902160924 | 36 | 360 | 3.2 | 8.0 | 0.00 | 0.00 | 0.00 | 48 | 1016.9 |
| 20260902160844 | 36 | 360 | 1.6 | 9.7 | 0.00 | 0.00 | 0.00 | 49 | 1016.8 |
| 20260902160724 | 36 | 360 | 3.2 | 9.7 | 0.00 | 0.00 | 0.00 | 48 | 1016.9 |
| 20260902160624 | 36 | 360 | 1.6 | 9.7 | 0.00 | 0.00 | 0.00 | 49 | 1016.9 |
| 20260902160525 | 35 | 360 | 3.2 | 9.7 | 0.00 | 0.00 | 0.00 | 49 | 1016.9 |
| 20260902160426 | 35 | 360 | 1.6 | 9.7 | 0.00 | 0.00 | 0.00 | 49 | 1016.9 |
| 20260902160330 | 35 | 360 | 1.6 | 9.7 | 0.00 | 0.00 | 0.00 | 49 | 1016.9 |
| 20260902160230 | 35 | 360 | 3.2 | 9.7 | 0.00 | 0.00 | 0.00 | 48 | 1016.9 |
| 20260902160131 | 35 | 360 | 3.2 | 9.7 | 0.00 | 0.00 | 0.00 | 48 | 1016.9 |
| 20260902160051 | 36 | 360 | 3.2 | 9.7 | 0.00 | 0.00 | 0.00 | 47 | 1016.9 |
| 20260902155931 | 36 | 360 | 3.2 | 9.7 | 0.00 | 0.00 | 0.00 | 47 | 1016.9 |
| 20260902155834 | 36 | 360 | 1.6 | 9.7 | 0.00 | 0.00 | 0.00 | 47 | 1016.9 |
| 20260902155732 | 36 | 360 | 1.6 | 9.7 | 0.00 | 0.00 | 0.00 | 47 | 1016.9 |
| 20260902155617 | 36 | 360 | 1.6 | 12.9 | 0.00 | 0.00 | 0.00 | 49 | 1016.9 |
| 20260902155517 | 36 | 360 | 1.6 | 12.9 | 0.00 | 0.00 | 0.00 | 50 | 1016.8 |
| 20260902155416 | 36 | 360 | 3.2 | 12.9 | 0.00 | 0.00 | 0.00 | 50 | 1016.8 |
| 20260902155337 | 35 | 360 | 4.8 | 12.9 | 0.00 | 0.00 | 0.00 | 50 | 1016.8 |
| 20260902155216 | 35 | 360 | 4.8 | 12.9 | 0.00 | 0.00 | 0.00 | 50 | 1016.9 |
| 20260902155117 | 35 | 360 | 6.4 | 12.9 | 0.00 | 0.00 | 0.00 | 50 | 1016.8 |
| 20260902155037 | 35 | 360 | 6.4 | 12.9 | 0.00 | 0.00 | 0.00 | 49 | 1016.9 |
| 20260902154933 | 36 | 360 | 4.8 | 12.9 | 0.00 | 0.00 | 0.00 | 49 | 1016.9 |
| 20260902154817 | 36 | 360 | 4.8 | 12.9 | 0.00 | 0.00 | 0.00 | 48 | 1016.8 |
| 20260902154716 | 36 | 360 | 3.2 | 8.0 | 0.00 | 0.00 | 0.00 | 49 | 1016.9 |
| 20260902154616 | 36 | 360 | 3.2 | 8.0 | 0.00 | 0.00 | 0.00 | 50 | 1016.8 |
| 20260902154517 | 36 | 360 | 3.2 | 12.9 | 0.00 | 0.00 | 0.00 | 51 | 1016.8 |
| 20260902154437 | 36 | 360 | 3.2 | 12.9 | 0.00 | 0.00 | 0.00 | 51 | 1016.9 |
| 20260902154317 | 36 | 360 | 3.2 | 12.9 | 0.00 | 0.00 | 0.00 | 51 | 1016.9 |
| 20260902154218 | 35 | 360 | 1.6 | 12.9 | 0.00 | 0.00 | 0.00 | 52 | 1016.8 |
| 20260902154123 | 35 | 360 | 1.6 | 12.9 | 0.00 | 0.00 | 0.00 | 52 | 1016.9 |
| 20260902154023 | 35 | 360 | 1.6 | 12.9 | 0.00 | 0.00 | 0.00 | 52 | 1016.8 |
| 20260902153924 | 35 | 360 | 3.2 | 12.9 | 0.00 | 0.00 | 0.00 | 52 | 1016.9 |
| 20260902153824 | 35 | 360 | 3.2 | 12.9 | 0.00 | 0.00 | 0.00 | 52 | 1016.8 |
| 20260902153725 | 34 | 360 | 6.4 | 12.9 | 0.00 | 0.00 | 0.00 | 52 | 1016.9 |
| 20260902153626 | 34 | 360 | 4.8 | 12.9 | 0.00 | 0.00 | 0.00 | 52 | 1016.9 |
| 20260902153526 | 34 | 360 | 4.8 | 12.9 | 0.00 | 0.00 | 0.00 | 54 | 1016.8 |
| 20260902153431 | 34 | 360 | 1.6 | 9.7 | 0.00 | 0.00 | 0.00 | 55 | 1016.8 |
| 20260902153332 | 34 | 360 | 3.2 | 9.7 | 0.00 | 0.00 | 0.00 | 56 | 1016.9 |
| 20260902153233 | 33 | 360 | 3.2 | 12.9 | 0.00 | 0.00 | 0.00 | 56 | 1016.8 |
| 20260902153132 | 33 | 360 | 3.2 | 14.5 | 0.00 | 0.00 | 0.00 | 56 | 1016.9 |
| 20260902153033 | 33 | 360 | 3.2 | 14.5 | 0.00 | 0.00 | 0.00 | 55 | 1016.8 |
| 20260902152933 | 33 | 360 | 3.2 | 14.5 | 0.00 | 0.00 | 0.00 | 56 | 1016.8 |
| 20260902152819 | 33 | 360 | 4.8 | 14.5 | 0.00 | 0.00 | 0.00 | 57 | 1016.9 |
| 20260902152717 | 33 | 360 | 6.4 | 14.5 | 0.00 | 0.00 | 0.00 | 56 | 1016.9 |
| 20260902152617 | 33 | 360 | 6.4 | 14.5 | 0.00 | 0.00 | 0.00 | 56 | 1016.8 |
| 20260902152517 | 33 | 360 | 6.4 | 14.5 | 0.00 | 0.00 | 0.00 | 56 | 1016.9 |
| 20260902152418 | 33 | 360 | 4.8 | 14.5 | 0.00 | 0.00 | 0.00 | 55 | 1016.8 |
| 20260902152317 | 33 | 360 | 6.4 | 14.5 | 0.00 | 0.00 | 0.00 | 56 | 1016.8 |
| 20260902152218 | 33 | 360 | 6.4 | 14.5 | 0.00 | 0.00 | 0.00 | 56 | 1016.9 |
| 20260902152142 | 33 | 360 | 6.4 | 12.9 | 0.00 | 0.00 | 0.00 | 56 | 1016.9 |
| 20260902152022 | 33 | 360 | 4.8 | 12.9 | 0.00 | 0.00 | 0.00 | 56 | 1016.8 |
| 20260902151923 | 33 | 360 | 6.4 | 12.9 | 0.00 | 0.00 | 0.00 | 56 | 1016.8 |
| 20260902151824 | 33 | 360 | 4.8 | 12.9 | 0.00 | 0.00 | 0.00 | 58 | 1016.8 |
| 20260902151724 | 33 | 360 | 3.2 | 12.9 | 0.00 | 0.00 | 0.00 | 58 | 1016.9 |
| 20260902151624 | 33 | 360 | 3.2 | 12.9 | 0.00 | 0.00 | 0.00 | 58 | 1016.7 |
| 20260902151524 | 33 | 360 | 4.8 | 12.9 | 0.00 | 0.00 | 0.00 | 58 | 1016.8 |
| 20260902151429 | 32 | 360 | 4.8 | 12.9 | 0.00 | 0.00 | 0.00 | 58 | 1016.8 |
| 20260902151328 | 32 | 360 | 4.8 | 12.9 | 0.00 | 0.00 | 0.00 | 59 | 1016.8 |
| 20260902151249 | 32 | 360 | 4.8 | 12.9 | 0.00 | 0.00 | 0.00 | 59 | 1016.8 |
| 20260902151147 | 32 | 360 | 6.4 | 12.9 | 0.00 | 0.00 | 0.00 | 59 | 1016.7 |
| 20260902151046 | 32 | 360 | 4.8 | 12.9 | 0.00 | 0.00 | 0.00 | 60 | 1016.8 |
| 20260902150925 | 32 | 360 | 4.8 | 12.9 | 0.00 | 0.00 | 0.00 | 61 | 1016.8 |
| 20260902150825 | 32 | 360 | 3.2 | 9.7 | 0.00 | 0.00 | 0.00 | 61 | 1016.8 |
| 20260902150726 | 32 | 360 | 3.2 | 12.9 | 0.00 | 0.00 | 0.00 | 62 | 1016.8 |
| 20260902150651 | 31 | 360 | 3.2 | 12.9 | 0.00 | 0.00 | 0.00 | 62 | 1016.8 |
| 20260902150529 | 31 | 360 | 3.2 | 12.9 | 0.00 | 0.00 | 0.00 | 62 | 1016.8 |
| 20260902150427 | 31 | 360 | 4.8 | 16.1 | 0.00 | 0.00 | 0.00 | 61 | 1016.8 |
| 20260902150327 | 32 | 360 | 4.8 | 16.1 | 0.00 | 0.00 | 0.00 | 61 | 1016.9 |
| 20260902150228 | 31 | 360 | 6.4 | 16.1 | 0.00 | 0.00 | 0.00 | 61 | 1016.8 |
| 20260902150129 | 31 | 360 | 6.4 | 16.1 | 0.00 | 0.00 | 0.00 | 61 | 1016.8 |
| 20260902150029 | 31 | 360 | 6.4 | 16.1 | 0.00 | 0.00 | 0.00 | 61 | 1016.8 |
| 20260902145934 | 31 | 360 | 4.8 | 16.1 | 0.00 | 0.00 | 0.00 | 62 | 1016.8 |
| 20260902145835 | 31 | 360 | 4.8 | 16.1 | 0.00 | 0.00 | 0.00 | 62 | 1016.9 |
| 20260902145735 | 31 | 360 | 4.8 | 16.1 | 0.00 | 0.00 | 0.00 | 62 | 1016.8 |
| 20260902145635 | 31 | 360 | 6.4 | 16.1 | 0.00 | 0.00 | 0.00 | 63 | 1016.9 |
| 20260902145534 | 31 | 360 | 4.8 | 16.1 | 0.00 | 0.00 | 0.00 | 63 | 1016.8 |
| 20260902145424 | 31 | 360 | 4.8 | 16.1 | 0.00 | 0.00 | 0.00 | 63 | 1016.9 |
| 20260902145328 | 31 | 360 | 4.8 | 16.1 | 0.00 | 0.00 | 0.00 | 63 | 1016.8 |
| 20260902145229 | 31 | 360 | 4.8 | 16.1 | 0.00 | 0.00 | 0.00 | 63 | 1016.9 |
| 20260902145128 | 31 | 360 | 6.4 | 16.1 | 0.00 | 0.00 | 0.00 | 63 | 1016.9 |
| 20260902145029 | 31 | 360 | 6.4 | 16.1 | 0.00 | 0.00 | 0.00 | 63 | 1016.8 |
| 20260902144930 | 31 | 360 | 6.4 | 16.1 | 0.00 | 0.00 | 0.00 | 63 | 1016.9 |
| 20260902144830 | 31 | 360 | 6.4 | 16.1 | 0.00 | 0.00 | 0.00 | 63 | 1016.9 |
| 20260902144731 | 31 | 360 | 6.4 | 16.1 | 0.00 | 0.00 | 0.00 | 63 | 1016.9 |
| 20260902144617 | 31 | 360 | 6.4 | 16.1 | 0.00 | 0.00 | 0.00 | 63 | 1016.9 |
| 20260902144516 | 31 | 360 | 8.0 | 16.1 | 0.00 | 0.00 | 0.00 | 64 | 1016.9 |
| 20260902144417 | 31 | 360 | 8.0 | 16.1 | 0.00 | 0.00 | 0.00 | 63 | 1016.9 |
| 20260902144318 | 31 | 360 | 8.0 | 16.1 | 0.00 | 0.00 | 0.00 | 63 | 1016.9 |
| 20260902144218 | 31 | 360 | 6.4 | 16.1 | 0.00 | 0.00 | 0.00 | 63 | 1016.9 |
| 20260902144118 | 31 | 360 | 6.4 | 16.1 | 0.00 | 0.00 | 0.00 | 63 | 1016.9 |
| 20260902144023 | 31 | 360 | 6.4 | 12.9 | 0.00 | 0.00 | 0.00 | 63 | 1016.9 |
| 20260902143923 | 31 | 360 | 4.8 | 12.9 | 0.00 | 0.00 | 0.00 | 63 | 1016.9 |
| 20260902143826 | 31 | 360 | 4.8 | 12.9 | 0.00 | 0.00 | 0.00 | 64 | 1016.9 |
| 20260902143744 | 31 | 360 | 4.8 | 12.9 | 0.00 | 0.00 | 0.00 | 65 | 1016.9 |
| 20260902143642 | 31 | 360 | 3.2 | 12.9 | 0.00 | 0.00 | 0.00 | 66 | 1016.9 |
| 20260902143542 | 31 | 360 | 1.6 | 9.7 | 0.00 | 0.00 | 0.00 | 67 | 1016.9 |
| 20260902143441 | 31 | 360 | 1.6 | 6.4 | 0.00 | 0.00 | 0.00 | 67 | 1016.9 |
| 20260902143342 | 31 | 360 | 3.2 | 6.4 | 0.00 | 0.00 | 0.00 | 67 | 1017.0 |
| 20260902143242 | 31 | 360 | 3.2 | 6.4 | 0.00 | 0.00 | 0.00 | 67 | 1017.0 |
| 20260902143125 | 31 | 360 | 3.2 | 6.4 | 0.00 | 0.00 | 0.00 | 66 | 1017.0 |
| 20260902143025 | 31 | 360 | 3.2 | 6.4 | 0.00 | 0.00 | 0.00 | 66 | 1017.0 |
| 20260902142926 | 31 | 322 | 3.2 | 6.4 | 0.00 | 0.00 | 0.00 | 67 | 1017.0 |
| 20260902142828 | 31 | 323 | 3.2 | 6.4 | 0.00 | 0.00 | 0.00 | 67 | 1017.0 |
| 20260902142728 | 31 | 360 | 1.6 | 6.4 | 0.00 | 0.00 | 0.00 | 67 | 1016.9 |
| 20260902142648 | 31 | 295 | 1.6 | 6.4 | 0.00 | 0.00 | 0.00 | 69 | 1017.0 |
| 20260902142527 | 30 | 360 | 1.6 | 6.4 | 0.00 | 0.00 | 0.00 | 69 | 1017.0 |
| 20260902142449 | 30 | 360 | 1.6 | 6.4 | 0.00 | 0.00 | 0.00 | 69 | 1017.0 |
| 20260902142331 | 30 | 360 | 1.6 | 6.4 | 0.00 | 0.00 | 0.00 | 70 | 1017.0 |
| 20260902142231 | 30 | 360 | 3.2 | 6.4 | 0.00 | 0.00 | 0.00 | 70 | 1017.0 |
| 20260902142131 | 30 | 360 | 3.2 | 6.4 | 0.00 | 0.00 | 0.00 | 69 | 1017.0 |
| 20260902142052 | 30 | 360 | 3.2 | 4.8 | 0.00 | 0.00 | 0.00 | 69 | 1017.1 |
| 20260902141951 | 30 | 360 | 4.8 | 4.8 | 0.00 | 0.00 | 0.00 | 69 | 1017.1 |
| 20260902141830 | 30 | 290 | 3.2 | 4.8 | 0.00 | 0.00 | 0.00 | 70 | 1017.0 |
| 20260902141730 | 30 | 360 | 3.2 | 4.8 | 0.00 | 0.00 | 0.00 | 72 | 1017.0 |
| 20260902141631 | 29 | 360 | 1.6 | 4.8 | 0.00 | 0.00 | 0.00 | 72 | 1017.0 |
| 20260902141535 | 29 | 360 | 1.6 | 4.8 | 0.00 | 0.00 | 0.00 | 72 | 1017.1 |
| 20260902141436 | 29 | 360 | 1.6 | 4.8 | 0.00 | 0.00 | 0.00 | 72 | 1017.0 |
| 20260902141335 | 28 | 360 | 1.6 | 4.8 | 0.00 | 0.00 | 0.00 | 72 | 1017.1 |
| 20260902141236 | 28 | 360 | 3.2 | 4.8 | 0.00 | 0.00 | 0.00 | 72 | 1017.0 |
| 20260902141135 | 28 | 360 | 1.6 | 4.8 | 0.00 | 0.00 | 0.00 | 72 | 1017.1 |
| 20260902141035 | 28 | 171 | 1.6 | 6.4 | 0.00 | 0.00 | 0.00 | 72 | 1017.0 |
| 20260902140936 | 28 | 360 | 1.6 | 4.8 | 0.00 | 0.00 | 0.00 | 72 | 1017.0 |
| 20260902140820 | 28 | 171 | 3.2 | 4.8 | 0.00 | 0.00 | 0.00 | 72 | 1017.1 |
| 20260902140720 | 28 | 360 | 3.2 | 4.8 | 0.00 | 0.00 | 0.00 | 72 | 1017.0 |
| 20260902140621 | 28 | 360 | 3.2 | 4.8 | 0.00 | 0.00 | 0.00 | 72 | 1017.0 |
| 20260902140542 | 28 | 360 | 1.6 | 4.8 | 0.00 | 0.00 | 0.00 | 73 | 1017.0 |
| 20260902140420 | 28 | 360 | 1.6 | 4.8 | 0.00 | 0.00 | 0.00 | 73 | 1017.1 |
| 20260902140321 | 28 | 360 | 1.6 | 4.8 | 0.00 | 0.00 | 0.00 | 73 | 1017.0 |
| 20260902140221 | 28 | 171 | 1.6 | 4.8 | 0.00 | 0.00 | 0.00 | 73 | 1017.1 |
| 20260902140126 | 27 | 171 | 1.6 | 4.8 | 0.00 | 0.00 | 0.00 | 74 | 1017.0 |
| 20260902140025 | 27 | 360 | 1.6 | 4.8 | 0.00 | 0.00 | 0.00 | 74 | 1017.1 |
| 20260902135926 | 27 | 170 | 0.0 | 3.2 | 0.00 | 0.00 | 0.00 | 74 | 1017.0 |
| 20260902135828 | 27 | 170 | 0.0 | 3.2 | 0.00 | 0.00 | 0.00 | 74 | 1017.1 |
| 20260902135728 | 27 | 171 | 0.0 | 3.2 | 0.00 | 0.00 | 0.00 | 75 | 1017.1 |
| 20260902135628 | 27 | 170 | 0.0 | 3.2 | 0.00 | 0.00 | 0.00 | 74 | 1017.1 |
| 20260902135529 | 27 | 170 | 0.0 | 3.2 | 0.00 | 0.00 | 0.00 | 75 | 1017.0 |
| 20260902135433 | 27 | 170 | 0.0 | 0.0 | 0.00 | 0.00 | 0.00 | 75 | 1017.0 |
| 20260902135354 | 27 | 170 | 0.0 | 0.0 | 0.00 | 0.00 | 0.00 | 76 | 1017.0 |
| 20260902135254 | 27 | 170 | 0.0 | 0.0 | 0.00 | 0.00 | 0.00 | 76 | 1017.0 |
| 20260902135133 | 27 | 170 | 0.0 | 0.0 | 0.00 | 0.00 | 0.00 | 76 | 1017.0 |
| 20260902135033 | 27 | 170 | 0.0 | 0.0 | 0.00 | 0.00 | 0.00 | 76 | 1017.0 |
| 20260902134934 | 27 | 170 | 0.0 | 0.0 | 0.00 | 0.00 | 0.00 | 76 | 1017.0 |
| 20260902134834 | 27 | 170 | 0.0 | 0.0 | 0.00 | 0.00 | 0.00 | 77 | 1016.9 |
| 20260902134719 | 27 | 170 | 0.0 | 0.0 | 0.00 | 0.00 | 0.00 | 77 | 1016.9 |
| 20260902134619 | 27 | 170 | 0.0 | 0.0 | 0.00 | 0.00 | 0.00 | 77 | 1016.9 |
| 20260902134520 | 27 | 170 | 0.0 | 0.0 | 0.00 | 0.00 | 0.00 | 77 | 1017.0 |
| 20260902134420 | 26 | 170 | 0.0 | 0.0 | 0.00 | 0.00 | 0.00 | 77 | 1016.9 |
| 20260902134321 | 26 | 170 | 0.0 | 0.0 | 0.00 | 0.00 | 0.00 | 77 | 1016.9 |
| 20260902134221 | 26 | 170 | 0.0 | 0.0 | 0.00 | 0.00 | 0.00 | 77 | 1016.9 |
| 20260902134125 | 26 | 170 | 0.0 | 0.0 | 0.00 | 0.00 | 0.00 | 77 | 1016.9 |
| 20260902134027 | 26 | 170 | 0.0 | 0.0 | 0.00 | 0.00 | 0.00 | 77 | 1016.8 |
| 20260902133948 | 26 | 360 | 0.0 | 0.0 | 0.00 | 0.00 | 0.00 | 77 | 1016.9 |
| 20260902133827 | 26 | 360 | 0.0 | 0.0 | 0.00 | 0.00 | 0.00 | 77 | 1016.9 |
| 20260902133728 | 26 | 170 | 0.0 | 0.0 | 0.00 | 0.00 | 0.00 | 77 | 1016.9 |
| 20260902133629 | 26 | 170 | 0.0 | 0.0 | 0.00 | 0.00 | 0.00 | 77 | 1016.9 |
| 20260902133529 | 26 | 171 | 0.0 | 0.0 | 0.00 | 0.00 | 0.00 | 77 | 1016.8 |
| 20260902133430 | 26 | 171 | 0.0 | 0.0 | 0.00 | 0.00 | 0.00 | 78 | 1016.8 |
| 20260902133334 | 26 | 170 | 0.0 | 0.0 | 0.00 | 0.00 | 0.00 | 77 | 1016.8 |
| 20260902133235 | 26 | 360 | 0.0 | 0.0 | 0.00 | 0.00 | 0.00 | 77 | 1016.8 |
| 20260902133135 | 26 | 360 | 0.0 | 0.0 | 0.00 | 0.00 | 0.00 | 77 | 1016.8 |
| 20260902133016 | 26 | 171 | 0.0 | 3.2 | 0.00 | 0.00 | 0.00 | 78 | 1016.8 |
| 20260902132917 | 26 | 171 | 0.0 | 3.2 | 0.00 | 0.00 | 0.00 | 78 | 1016.8 |
| 20260902132838 | 26 | 170 | 0.0 | 3.2 | 0.00 | 0.00 | 0.00 | 77 | 1016.8 |
| 20260902132721 | 26 | 170 | 0.0 | 3.2 | 0.00 | 0.00 | 0.00 | 77 | 1016.8 |
| 20260902132620 | 26 | 170 | 0.0 | 3.2 | 0.00 | 0.00 | 0.00 | 77 | 1016.8 |
| 20260902132521 | 26 | 360 | 0.0 | 3.2 | 0.00 | 0.00 | 0.00 | 77 | 1016.8 |
| 20260902132442 | 26 | 360 | 0.0 | 3.2 | 0.00 | 0.00 | 0.00 | 77 | 1016.8 |
| 20260902132322 | 26 | 171 | 1.6 | 3.2 | 0.00 | 0.00 | 0.00 | 77 | 1016.8 |
| 20260902132222 | 26 | 171 | 1.6 | 3.2 | 0.00 | 0.00 | 0.00 | 77 | 1016.8 |
| 20260902132124 | 26 | 171 | 1.6 | 3.2 | 0.00 | 0.00 | 0.00 | 77 | 1016.7 |
| 20260902132028 | 26 | 360 | 1.6 | 3.2 | 0.00 | 0.00 | 0.00 | 77 | 1016.8 |
| 20260902131929 | 26 | 360 | 1.6 | 3.2 | 0.00 | 0.00 | 0.00 | 77 | 1016.7 |
| 20260902131831 | 26 | 360 | 1.6 | 3.2 | 0.00 | 0.00 | 0.00 | 77 | 1016.7 |
| 20260902131729 | 26 | 360 | 1.6 | 3.2 | 0.00 | 0.00 | 0.00 | 78 | 1016.7 |
| 20260902131630 | 26 | 170 | 1.6 | 3.2 | 0.00 | 0.00 | 0.00 | 78 | 1016.6 |
| 20260902131530 | 26 | 171 | 1.6 | 3.2 | 0.00 | 0.00 | 0.00 | 78 | 1016.7 |
| 20260902131431 | 26 | 171 | 1.6 | 3.2 | 0.00 | 0.00 | 0.00 | 78 | 1016.7 |
| 20260902131335 | 26 | 170 | 1.6 | 3.2 | 0.00 | 0.00 | 0.00 | 78 | 1016.6 |
| 20260902131216 | 26 | 360 | 0.0 | 3.2 | 0.00 | 0.00 | 0.00 | 78 | 1016.6 |
| 20260902131116 | 26 | 360 | 0.0 | 3.2 | 0.00 | 0.00 | 0.00 | 78 | 1016.7 |
| 20260902131016 | 26 | 360 | 0.0 | 3.2 | 0.00 | 0.00 | 0.00 | 79 | 1016.6 |
| 20260902130917 | 26 | 360 | 1.6 | 3.2 | 0.00 | 0.00 | 0.00 | 79 | 1016.6 |
| 20260902130817 | 25 | 170 | 1.6 | 3.2 | 0.00 | 0.00 | 0.00 | 79 | 1016.6 |
| 20260902130721 | 25 | 170 | 1.6 | 3.2 | 0.00 | 0.00 | 0.00 | 79 | 1016.6 |
| 20260902130622 | 25 | 360 | 1.6 | 3.2 | 0.00 | 0.00 | 0.00 | 79 | 1016.6 |
| 20260902130522 | 25 | 360 | 1.6 | 3.2 | 0.00 | 0.00 | 0.00 | 79 | 1016.6 |
| 20260902130443 | 25 | 360 | 1.6 | 3.2 | 0.00 | 0.00 | 0.00 | 79 | 1016.6 |
| 20260902130341 | 25 | 170 | 1.6 | 3.2 | 0.00 | 0.00 | 0.00 | 79 | 1016.7 |
| 20260902130221 | 25 | 170 | 1.6 | 3.2 | 0.00 | 0.00 | 0.00 | 79 | 1016.6 |
| 20260902130122 | 25 | 170 | 1.6 | 3.2 | 0.00 | 0.00 | 0.00 | 79 | 1016.5 |
| 20260902130042 | 25 | 360 | 1.6 | 3.2 | 0.00 | 0.00 | 0.00 | 79 | 1016.6 |
| 20260902125925 | 25 | 360 | 1.6 | 3.2 | 0.00 | 0.00 | 0.00 | 79 | 1016.5 |
| 20260902125827 | 25 | 360 | 1.6 | 3.2 | 0.00 | 0.00 | 0.00 | 79 | 1016.6 |
| 20260902125726 | 25 | 360 | 1.6 | 3.2 | 0.00 | 0.00 | 0.00 | 79 | 1016.6 |
| 20260902125627 | 25 | 360 | 0.0 | 3.2 | 0.00 | 0.00 | 0.00 | 80 | 1016.5 |
| 20260902125528 | 25 | 360 | 0.0 | 1.6 | 0.00 | 0.00 | 0.00 | 80 | 1016.5 |
| 20260902125428 | 25 | 170 | 0.0 | 1.6 | 0.00 | 0.00 | 0.00 | 80 | 1016.6 |
| 20260902125329 | 25 | 360 | 0.0 | 1.6 | 0.00 | 0.00 | 0.00 | 80 | 1016.6 |
| 20260902125233 | 25 | 170 | 0.0 | 0.0 | 0.00 | 0.00 | 0.00 | 80 | 1016.5 |
| 20260902125132 | 25 | 360 | 0.0 | 0.0 | 0.00 | 0.00 | 0.00 | 80 | 1016.6 |
| 20260902125033 | 25 | 360 | 0.0 | 0.0 | 0.00 | 0.00 | 0.00 | 81 | 1016.5 |
| 20260902124953 | 25 | 170 | 0.0 | 0.0 | 0.00 | 0.00 | 0.00 | 81 | 1016.5 |
| 20260902124832 | 25 | 360 | 0.0 | 0.0 | 0.00 | 0.00 | 0.00 | 80 | 1016.5 |
| 20260902124753 | 25 | 360 | 0.0 | 0.0 | 0.00 | 0.00 | 0.00 | 80 | 1016.4 |
| 20260902124654 | 25 | 360 | 0.0 | 0.0 | 0.00 | 0.00 | 0.00 | 80 | 1016.5 |
| 20260902124533 | 25 | 360 | 0.0 | 0.0 | 0.00 | 0.00 | 0.00 | 80 | 1016.5 |
| 20260902124417 | 25 | 360 | 0.0 | 0.0 | 0.00 | 0.00 | 0.00 | 80 | 1016.4 |
| 20260902124318 | 25 | 171 | 0.0 | 0.0 | 0.00 | 0.00 | 0.00 | 80 | 1016.4 |
| 20260902124218 | 24 | 360 | 0.0 | 0.0 | 0.00 | 0.00 | 0.00 | 80 | 1016.4 |
| 20260902124120 | 24 | 360 | 0.0 | 0.0 | 0.00 | 0.00 | 0.00 | 80 | 1016.4 |
| 20260902124021 | 24 | 360 | 0.0 | 0.0 | 0.00 | 0.00 | 0.00 | 80 | 1016.4 |
| 20260902123921 | 24 | 360 | 0.0 | 0.0 | 0.00 | 0.00 | 0.00 | 80 | 1016.3 |
| 20260902123825 | 24 | 360 | 0.0 | 0.0 | 0.00 | 0.00 | 0.00 | 80 | 1016.3 |
| 20260902123725 | 24 | 360 | 0.0 | 0.0 | 0.00 | 0.00 | 0.00 | 80 | 1016.4 |
| 20260902123626 | 24 | 170 | 0.0 | 0.0 | 0.00 | 0.00 | 0.00 | 80 | 1016.3 |
| 20260902123526 | 24 | 360 | 0.0 | 0.0 | 0.00 | 0.00 | 0.00 | 80 | 1016.4 |
| 20260902123426 | 24 | 360 | 0.0 | 0.0 | 0.00 | 0.00 | 0.00 | 80 | 1016.4 |
| 20260902123327 | 24 | 360 | 0.0 | 0.0 | 0.00 | 0.00 | 0.00 | 80 | 1016.3 |
| 20260902123248 | 24 | 360 | 0.0 | 0.0 | 0.00 | 0.00 | 0.00 | 80 | 1016.4 |
| 20260902123148 | 24 | 360 | 0.0 | 0.0 | 0.00 | 0.00 | 0.00 | 80 | 1016.4 |
| 20260902123053 | 24 | 360 | 0.0 | 0.0 | 0.00 | 0.00 | 0.00 | 81 | 1016.3 |
| 20260902122932 | 24 | 360 | 0.0 | 0.0 | 0.00 | 0.00 | 0.00 | 81 | 1016.3 |
| 20260902122834 | 24 | 360 | 0.0 | 0.0 | 0.00 | 0.00 | 0.00 | 81 | 1016.2 |
| 20260902122734 | 24 | 360 | 0.0 | 0.0 | 0.00 | 0.00 | 0.00 | 81 | 1016.1 |
| 20260902122635 | 24 | 170 | 0.0 | 0.0 | 0.00 | 0.00 | 0.00 | 80 | 1016.2 |
| 20260902122516 | 24 | 170 | 0.0 | 0.0 | 0.00 | 0.00 | 0.00 | 80 | 1016.2 |
| 20260902122419 | 24 | 170 | 0.0 | 0.0 | 0.00 | 0.00 | 0.00 | 80 | 1016.2 |
| 20260902122321 | 24 | 170 | 0.0 | 0.0 | 0.00 | 0.00 | 0.00 | 80 | 1016.2 |
| 20260902122242 | 24 | 170 | 0.0 | 0.0 | 0.00 | 0.00 | 0.00 | 80 | 1016.2 |
| 20260902122121 | 24 | 170 | 0.0 | 0.0 | 0.00 | 0.00 | 0.00 | 80 | 1016.2 |
| 20260902122021 | 24 | 170 | 0.0 | 0.0 | 0.00 | 0.00 | 0.00 | 80 | 1016.2 |
| 20260902121922 | 24 | 170 | 0.0 | 0.0 | 0.00 | 0.00 | 0.00 | 80 | 1016.2 |
| 20260902121823 | 24 | 170 | 0.0 | 1.6 | 0.00 | 0.00 | 0.00 | 80 | 1016.1 |
| 20260902121728 | 24 | 170 | 0.0 | 1.6 | 0.00 | 0.00 | 0.00 | 80 | 1016.1 |
| 20260902121628 | 24 | 170 | 0.0 | 1.6 | 0.00 | 0.00 | 0.00 | 80 | 1016.1 |
| 20260902121528 | 24 | 170 | 0.0 | 1.6 | 0.00 | 0.00 | 0.00 | 80 | 1016.1 |
| 20260902121449 | 24 | 170 | 0.0 | 3.2 | 0.00 | 0.00 | 0.00 | 80 | 1016.1 |
| 20260902121329 | 24 | 170 | 0.0 | 3.2 | 0.00 | 0.00 | 0.00 | 80 | 1016.1 |
| 20260902121230 | 24 | 170 | 0.0 | 3.2 | 0.00 | 0.00 | 0.00 | 80 | 1016.1 |
| 20260902121131 | 24 | 170 | 0.0 | 3.2 | 0.00 | 0.00 | 0.00 | 80 | 1016.2 |
| 20260902121035 | 24 | 170 | 0.0 | 3.2 | 0.00 | 0.00 | 0.00 | 80 | 1016.1 |
| 20260902120936 | 24 | 360 | 0.0 | 3.2 | 0.00 | 0.00 | 0.00 | 80 | 1016.1 |
| 20260902120816 | 24 | 360 | 1.6 | 3.2 | 0.00 | 0.00 | 0.00 | 80 | 1016.1 |
| 20260902120716 | 24 | 360 | 1.6 | 3.2 | 0.00 | 0.00 | 0.00 | 80 | 1016.1 |
| 20260902120637 | 24 | 360 | 1.6 | 3.2 | 0.00 | 0.00 | 0.00 | 80 | 1016.1 |
| 20260902120517 | 24 | 360 | 0.0 | 3.2 | 0.00 | 0.00 | 0.00 | 80 | 1016.0 |
| 20260902120417 | 24 | 360 | 0.0 | 1.6 | 0.00 | 0.00 | 0.00 | 80 | 1016.1 |
| 20260902120322 | 24 | 360 | 0.0 | 0.0 | 0.00 | 0.00 | 0.00 | 80 | 1016.0 |
| 20260902120223 | 24 | 360 | 0.0 | 0.0 | 0.00 | 0.00 | 0.00 | 80 | 1016.1 |
| 20260902120123 | 24 | 170 | 0.0 | 0.0 | 0.00 | 0.00 | 0.00 | 80 | 1016.1 |
| 20260902120025 | 24 | 170 | 0.0 | 0.0 | 0.00 | 0.00 | 0.00 | 80 | 1016.1 |
| 20260902115926 | 24 | 170 | 0.0 | 0.0 | 0.00 | 0.00 | 0.00 | 81 | 1016.1 |
| 20260902115826 | 24 | 170 | 0.0 | 0.0 | 0.00 | 0.00 | 0.00 | 81 | 1016.1 |
| 20260902115730 | 24 | 170 | 0.0 | 0.0 | 0.00 | 0.00 | 0.00 | 81 | 1016.1 |
| 20260902115631 | 24 | 169 | 0.0 | 0.0 | 0.00 | 0.00 | 0.00 | 81 | 1016.1 |
| 20260902115530 | 24 | 360 | 0.0 | 0.0 | 0.00 | 0.00 | 0.00 | 81 | 1016.0 |
| 20260902115431 | 24 | 170 | 0.0 | 0.0 | 0.00 | 0.00 | 0.00 | 81 | 1016.1 |
| 20260902115332 | 24 | 360 | 0.0 | 0.0 | 0.00 | 0.00 | 0.00 | 81 | 1016.0 |
| 20260902115233 | 24 | 169 | 0.0 | 0.0 | 0.00 | 0.00 | 0.00 | 81 | 1016.1 |
| 20260902115134 | 24 | 360 | 0.0 | 0.0 | 0.00 | 0.00 | 0.00 | 81 | 1016.0 |
| 20260902115019 | 24 | 360 | 0.0 | 1.6 | 0.00 | 0.00 | 0.00 | 81 | 1016.1 |
| 20260902114920 | 24 | 360 | 0.0 | 1.6 | 0.00 | 0.00 | 0.00 | 81 | 1016.0 |
| 20260902114822 | 24 | 360 | 0.0 | 1.6 | 0.00 | 0.00 | 0.00 | 81 | 1016.0 |
| 20260902114723 | 24 | 360 | 0.0 | 1.6 | 0.00 | 0.00 | 0.00 | 81 | 1016.0 |
| 20260902114621 | 24 | 360 | 0.0 | 1.6 | 0.00 | 0.00 | 0.00 | 81 | 1016.1 |
| 20260902114542 | 24 | 360 | 0.0 | 1.6 | 0.00 | 0.00 | 0.00 | 81 | 1016.0 |
| 20260902114421 | 24 | 360 | 0.0 | 1.6 | 0.00 | 0.00 | 0.00 | 81 | 1016.0 |
| 20260902114325 | 24 | 161 | 0.0 | 1.6 | 0.00 | 0.00 | 0.00 | 81 | 1016.0 |
| 20260902114226 | 24 | 161 | 0.0 | 3.2 | 0.00 | 0.00 | 0.00 | 81 | 1015.9 |
| 20260902114126 | 24 | 360 | 0.0 | 3.2 | 0.00 | 0.00 | 0.00 | 81 | 1016.0 |
| 20260902114028 | 24 | 360 | 0.0 | 3.2 | 0.00 | 0.00 | 0.00 | 81 | 1015.9 |
| 20260902113929 | 24 | 360 | 0.0 | 3.2 | 0.00 | 0.00 | 0.00 | 81 | 1016.0 |
| 20260902113829 | 24 | 360 | 0.0 | 3.2 | 0.00 | 0.00 | 0.00 | 81 | 1016.0 |
| 20260902113729 | 24 | 161 | 0.0 | 3.2 | 0.00 | 0.00 | 0.00 | 81 | 1016.1 |
| 20260902113635 | 24 | 161 | 0.0 | 3.2 | 0.00 | 0.00 | 0.00 | 81 | 1016.1 |
| 20260902113535 | 24 | 161 | 1.6 | 3.2 | 0.00 | 0.00 | 0.00 | 81 | 1016.0 |
| 20260902113416 | 24 | 360 | 1.6 | 3.2 | 0.00 | 0.00 | 0.00 | 81 | 1016.0 |
| 20260902113316 | 24 | 360 | 0.0 | 3.2 | 0.00 | 0.00 | 0.00 | 81 | 1016.1 |
| 20260902113217 | 24 | 360 | 0.0 | 3.2 | 0.00 | 0.00 | 0.00 | 81 | 1016.0 |
| 20260902113117 | 24 | 360 | 0.0 | 3.2 | 0.00 | 0.00 | 0.00 | 80 | 1016.1 |
| 20260902113022 | 24 | 360 | 0.0 | 3.2 | 0.00 | 0.00 | 0.00 | 80 | 1016.0 |
| 20260902112922 | 24 | 360 | 0.0 | 3.2 | 0.00 | 0.00 | 0.00 | 80 | 1016.0 |
| 20260902112824 | 24 | 360 | 1.6 | 3.2 | 0.00 | 0.00 | 0.00 | 80 | 1016.0 |
| 20260902112723 | 24 | 360 | 1.6 | 3.2 | 0.00 | 0.00 | 0.00 | 80 | 1016.0 |
| 20260902112624 | 24 | 360 | 0.0 | 3.2 | 0.00 | 0.00 | 0.00 | 80 | 1016.0 |
| 20260902112524 | 24 | 360 | 0.0 | 0.0 | 0.00 | 0.00 | 0.00 | 80 | 1016.0 |
| 20260902112425 | 24 | 161 | 0.0 | 0.0 | 0.00 | 0.00 | 0.00 | 80 | 1016.0 |
| 20260902112329 | 24 | 161 | 0.0 | 0.0 | 0.00 | 0.00 | 0.00 | 80 | 1016.0 |
| 20260902112231 | 24 | 161 | 0.0 | 0.0 | 0.00 | 0.00 | 0.00 | 80 | 1016.0 |
| 20260902112132 | 24 | 161 | 0.0 | 0.0 | 0.00 | 0.00 | 0.00 | 80 | 1016.0 |
| 20260902112032 | 24 | 161 | 0.0 | 1.6 | 0.00 | 0.00 | 0.00 | 80 | 1016.1 |
| 20260902111933 | 24 | 161 | 0.0 | 1.6 | 0.00 | 0.00 | 0.00 | 80 | 1016.1 |
| 20260902111834 | 24 | 161 | 0.0 | 1.6 | 0.00 | 0.00 | 0.00 | 80 | 1016.0 |
| 20260902111719 | 24 | 161 | 0.0 | 1.6 | 0.00 | 0.00 | 0.00 | 80 | 1016.1 |
| 20260902111620 | 24 | 161 | 0.0 | 1.6 | 0.00 | 0.00 | 0.00 | 80 | 1016.0 |
| 20260902111520 | 24 | 161 | 0.0 | 1.6 | 0.00 | 0.00 | 0.00 | 80 | 1016.0 |
| 20260902111420 | 24 | 161 | 0.0 | 1.6 | 0.00 | 0.00 | 0.00 | 80 | 1016.0 |
| 20260902111321 | 24 | 360 | 0.0 | 1.6 | 0.00 | 0.00 | 0.00 | 80 | 1016.0 |
| 20260902111222 | 24 | 360 | 0.0 | 1.6 | 0.00 | 0.00 | 0.00 | 80 | 1016.0 |
| 20260902111143 | 24 | 161 | 0.0 | 1.6 | 0.00 | 0.00 | 0.00 | 80 | 1016.0 |
| 20260902111027 | 24 | 161 | 0.0 | 1.6 | 0.00 | 0.00 | 0.00 | 80 | 1015.9 |
| 20260902110948 | 24 | 161 | 0.0 | 1.6 | 0.00 | 0.00 | 0.00 | 80 | 1016.0 |
| 20260902110827 | 24 | 360 | 0.0 | 1.6 | 0.00 | 0.00 | 0.00 | 80 | 1016.0 |
| 20260902110727 | 24 | 360 | 0.0 | 1.6 | 0.00 | 0.00 | 0.00 | 80 | 1015.9 |
| 20260902110627 | 24 | 360 | 0.0 | 1.6 | 0.00 | 0.00 | 0.00 | 80 | 1015.9 |
| 20260902110527 | 24 | 360 | 0.0 | 1.6 | 0.00 | 0.00 | 0.00 | 80 | 1015.9 |
| 20260902110427 | 24 | 161 | 0.0 | 0.0 | 0.00 | 0.00 | 0.00 | 80 | 1016.0 |
| 20260902110348 | 24 | 161 | 0.0 | 0.0 | 0.00 | 0.00 | 0.00 | 80 | 1015.9 |
| 20260902110231 | 24 | 161 | 0.0 | 0.0 | 0.00 | 0.00 | 0.00 | 79 | 1015.9 |
| 20260902110131 | 24 | 161 | 0.0 | 0.0 | 0.00 | 0.00 | 0.00 | 79 | 1016.0 |
| 20260902110031 | 24 | 161 | 0.0 | 0.0 | 0.00 | 0.00 | 0.00 | 79 | 1016.0 |
| 20260902105930 | 24 | 161 | 0.0 | 0.0 | 0.00 | 0.00 | 0.00 | 79 | 1015.9 |
| 20260902105831 | 24 | 161 | 0.0 | 0.0 | 0.00 | 0.00 | 0.00 | 79 | 1016.0 |
| 20260902105730 | 25 | 161 | 0.0 | 0.0 | 0.00 | 0.00 | 0.00 | 79 | 1015.9 |
| 20260902105651 | 25 | 161 | 0.0 | 0.0 | 0.00 | 0.00 | 0.00 | 79 | 1015.9 |
| 20260902105530 | 25 | 161 | 0.0 | 0.0 | 0.00 | 0.00 | 0.00 | 79 | 1015.9 |
| 20260902105435 | 25 | 161 | 0.0 | 0.0 | 0.00 | 0.00 | 0.00 | 79 | 1015.9 |
| 20260902105316 | 25 | 161 | 0.0 | 0.0 | 0.00 | 0.00 | 0.00 | 79 | 1015.9 |
| 20260902105217 | 25 | 161 | 0.0 | 0.0 | 0.00 | 0.00 | 0.00 | 79 | 1015.9 |
| 20260902105117 | 25 | 161 | 0.0 | 1.6 | 0.00 | 0.00 | 0.00 | 79 | 1015.9 |
| 20260902105018 | 25 | 161 | 0.0 | 3.2 | 0.00 | 0.00 | 0.00 | 79 | 1015.9 |
| 20260902104918 | 25 | 161 | 0.0 | 3.2 | 0.00 | 0.00 | 0.00 | 79 | 1015.9 |
| 20260902104823 | 25 | 161 | 0.0 | 3.2 | 0.00 | 0.00 | 0.00 | 79 | 1016.0 |
| 20260902104723 | 25 | 360 | 0.0 | 3.2 | 0.00 | 0.00 | 0.00 | 79 | 1016.0 |
| 20260902104623 | 25 | 360 | 0.0 | 3.2 | 0.00 | 0.00 | 0.00 | 79 | 1016.0 |
| 20260902104542 | 25 | 161 | 0.0 | 3.2 | 0.00 | 0.00 | 0.00 | 79 | 1016.0 |
| 20260902104423 | 25 | 161 | 0.0 | 3.2 | 0.00 | 0.00 | 0.00 | 79 | 1016.0 |
| 20260902104323 | 25 | 161 | 1.6 | 3.2 | 0.00 | 0.00 | 0.00 | 79 | 1016.0 |
| 20260902104244 | 25 | 161 | 1.6 | 3.2 | 0.00 | 0.00 | 0.00 | 79 | 1016.0 |
| 20260902104121 | 25 | 161 | 0.0 | 3.2 | 0.00 | 0.00 | 0.00 | 79 | 1016.0 |
| 20260902104026 | 25 | 161 | 0.0 | 0.0 | 0.00 | 0.00 | 0.00 | 79 | 1015.9 |
| 20260902103926 | 25 | 161 | 0.0 | 0.0 | 0.00 | 0.00 | 0.00 | 79 | 1015.9 |
| 20260902103827 | 25 | 161 | 0.0 | 0.0 | 0.00 | 0.00 | 0.00 | 79 | 1015.9 |
| 20260902103728 | 25 | 161 | 0.0 | 0.0 | 0.00 | 0.00 | 0.00 | 79 | 1015.9 |
| 20260902103629 | 25 | 161 | 0.0 | 0.0 | 0.00 | 0.00 | 0.00 | 79 | 1015.9 |
| 20260902103531 | 25 | 161 | 0.0 | 0.0 | 0.00 | 0.00 | 0.00 | 79 | 1016.0 |
| 20260902103416 | 25 | 161 | 0.0 | 0.0 | 0.00 | 0.00 | 0.00 | 79 | 1015.9 |
| 20260902103317 | 25 | 161 | 0.0 | 0.0 | 0.00 | 0.00 | 0.00 | 79 | 1015.9 |
| 20260902103217 | 25 | 161 | 0.0 | 0.0 | 0.00 | 0.00 | 0.00 | 79 | 1015.9 |
| 20260902103119 | 25 | 161 | 0.0 | 0.0 | 0.00 | 0.00 | 0.00 | 79 | 1015.9 |
| 20260902103020 | 25 | 161 | 0.0 | 0.0 | 0.00 | 0.00 | 0.00 | 79 | 1015.9 |
| 20260902102920 | 25 | 161 | 0.0 | 0.0 | 0.00 | 0.00 | 0.00 | 79 | 1015.9 |
| 20260902102822 | 25 | 161 | 0.0 | 0.0 | 0.00 | 0.00 | 0.00 | 79 | 1015.9 |
| 20260902102725 | 25 | 161 | 0.0 | 0.0 | 0.00 | 0.00 | 0.00 | 79 | 1016.0 |
| 20260902102626 | 25 | 161 | 0.0 | 0.0 | 0.00 | 0.00 | 0.00 | 79 | 1015.9 |
| 20260902102528 | 25 | 161 | 0.0 | 0.0 | 0.00 | 0.00 | 0.00 | 79 | 1015.9 |
| 20260902102448 | 25 | 360 | 0.0 | 0.0 | 0.00 | 0.00 | 0.00 | 79 | 1015.9 |
| 20260902102327 | 25 | 161 | 0.0 | 0.0 | 0.00 | 0.00 | 0.00 | 79 | 1015.9 |
| 20260902102227 | 25 | 161 | 0.0 | 0.0 | 0.00 | 0.00 | 0.00 | 78 | 1015.9 |
| 20260902102128 | 25 | 161 | 0.0 | 0.0 | 0.00 | 0.00 | 0.00 | 78 | 1016.0 |
| 20260902102032 | 25 | 161 | 0.0 | 0.0 | 0.00 | 0.00 | 0.00 | 78 | 1016.0 |
| 20260902101933 | 25 | 360 | 0.0 | 1.6 | 0.00 | 0.00 | 0.00 | 78 | 1016.0 |
| 20260902101854 | 25 | 360 | 0.0 | 1.6 | 0.00 | 0.00 | 0.00 | 78 | 1016.0 |
| 20260902101753 | 25 | 360 | 0.0 | 1.6 | 0.00 | 0.00 | 0.00 | 78 | 1016.1 |
| 20260902101633 | 25 | 360 | 0.0 | 1.6 | 0.00 | 0.00 | 0.00 | 78 | 1016.0 |
| 20260902101532 | 25 | 161 | 0.0 | 1.6 | 0.00 | 0.00 | 0.00 | 78 | 1016.0 |
| 20260902101433 | 25 | 161 | 0.0 | 1.6 | 0.00 | 0.00 | 0.00 | 78 | 1016.0 |
| 20260902101317 | 25 | 360 | 0.0 | 1.6 | 0.00 | 0.00 | 0.00 | 78 | 1016.0 |
| 20260902101239 | 25 | 360 | 0.0 | 1.6 | 0.00 | 0.00 | 0.00 | 77 | 1016.0 |
| 20260902101118 | 25 | 360 | 0.0 | 1.6 | 0.00 | 0.00 | 0.00 | 77 | 1016.0 |
| 20260902101020 | 25 | 360 | 0.0 | 0.0 | 0.00 | 0.00 | 0.00 | 77 | 1015.9 |
| 20260902100921 | 25 | 161 | 0.0 | 0.0 | 0.00 | 0.00 | 0.00 | 77 | 1016.0 |
| 20260902100821 | 25 | 360 | 0.0 | 0.0 | 0.00 | 0.00 | 0.00 | 77 | 1015.9 |
| 20260902100722 | 25 | 360 | 0.0 | 0.0 | 0.00 | 0.00 | 0.00 | 77 | 1015.9 |
| 20260902100625 | 25 | 161 | 0.0 | 0.0 | 0.00 | 0.00 | 0.00 | 77 | 1015.8 |
| 20260902100526 | 25 | 360 | 0.0 | 0.0 | 0.00 | 0.00 | 0.00 | 77 | 1015.8 |
| 20260902100426 | 25 | 360 | 0.0 | 0.0 | 0.00 | 0.00 | 0.00 | 77 | 1015.8 |
| 20260902100326 | 25 | 360 | 0.0 | 0.0 | 0.00 | 0.00 | 0.00 | 77 | 1015.8 |
| 20260902100247 | 25 | 360 | 0.0 | 0.0 | 0.00 | 0.00 | 0.00 | 77 | 1015.8 |
| 20260902100146 | 25 | 360 | 0.0 | 0.0 | 0.00 | 0.00 | 0.00 | 77 | 1015.8 |
| 20260902100026 | 25 | 360 | 0.0 | 0.0 | 0.00 | 0.00 | 0.00 | 77 | 1015.8 |
| 20260902095930 | 25 | 360 | 0.0 | 0.0 | 0.00 | 0.00 | 0.00 | 77 | 1015.8 |
| 20260902095833 | 25 | 360 | 0.0 | 0.0 | 0.00 | 0.00 | 0.00 | 77 | 1015.8 |
| 20260902095734 | 25 | 360 | 0.0 | 0.0 | 0.00 | 0.00 | 0.00 | 77 | 1015.8 |
| 20260902095635 | 25 | 360 | 0.0 | 3.2 | 0.00 | 0.00 | 0.00 | 77 | 1015.8 |
| 20260902095555 | 25 | 360 | 0.0 | 3.2 | 0.00 | 0.00 | 0.00 | 77 | 1015.9 |
| 20260902095435 | 25 | 161 | 0.0 | 3.2 | 0.00 | 0.00 | 0.00 | 77 | 1015.8 |
| 20260902095334 | 25 | 360 | 0.0 | 3.2 | 0.00 | 0.00 | 0.00 | 77 | 1015.8 |
| 20260902095240 | 25 | 360 | 0.0 | 3.2 | 0.00 | 0.00 | 0.00 | 77 | 1015.8 |
| 20260902095116 | 25 | 360 | 0.0 | 3.2 | 0.00 | 0.00 | 0.00 | 77 | 1015.8 |
| 20260902095017 | 25 | 360 | 0.0 | 3.2 | 0.00 | 0.00 | 0.00 | 77 | 1015.8 |
| 20260902094917 | 25 | 360 | 0.0 | 3.2 | 0.00 | 0.00 | 0.00 | 77 | 1015.8 |
| 20260902094839 | 25 | 360 | 0.0 | 3.2 | 0.00 | 0.00 | 0.00 | 77 | 1015.8 |
| 20260902094717 | 25 | 161 | 0.0 | 3.2 | 0.00 | 0.00 | 0.00 | 76 | 1015.8 |
| 20260902094637 | 25 | 161 | 1.6 | 3.2 | 0.00 | 0.00 | 0.00 | 76 | 1015.8 |
| 20260902094517 | 25 | 161 | 1.6 | 3.2 | 0.00 | 0.00 | 0.00 | 76 | 1015.8 |
| 20260902094420 | 26 | 161 | 1.6 | 3.2 | 0.00 | 0.00 | 0.00 | 76 | 1015.8 |
| 20260902094321 | 26 | 161 | 1.6 | 3.2 | 0.00 | 0.00 | 0.00 | 76 | 1015.8 |
| 20260902094221 | 26 | 161 | 1.6 | 3.2 | 0.00 | 0.00 | 0.00 | 76 | 1015.8 |
| 20260902094122 | 26 | 161 | 3.2 | 3.2 | 0.00 | 0.00 | 0.00 | 76 | 1015.8 |
| 20260902094021 | 26 | 161 | 3.2 | 3.2 | 0.00 | 0.00 | 0.00 | 76 | 1015.8 |
| 20260902093921 | 26 | 161 | 3.2 | 3.2 | 0.00 | 0.00 | 0.00 | 76 | 1015.8 |
| 20260902093826 | 26 | 161 | 3.2 | 3.2 | 0.00 | 0.00 | 0.00 | 76 | 1015.8 |
| 20260902093726 | 26 | 161 | 1.6 | 3.2 | 0.00 | 0.00 | 0.00 | 76 | 1015.9 |
| 20260902093627 | 26 | 161 | 1.6 | 3.2 | 0.00 | 0.00 | 0.00 | 76 | 1015.8 |
| 20260902093527 | 26 | 161 | 1.6 | 3.2 | 0.00 | 0.00 | 0.00 | 76 | 1015.9 |
| 20260902093428 | 26 | 161 | 1.6 | 3.2 | 0.00 | 0.00 | 0.00 | 76 | 1015.8 |
| 20260902093328 | 26 | 161 | 0.0 | 4.8 | 0.00 | 0.00 | 0.00 | 76 | 1015.8 |
| 20260902093249 | 26 | 161 | 0.0 | 4.8 | 0.00 | 0.00 | 0.00 | 75 | 1015.8 |
| 20260902093132 | 26 | 161 | 1.6 | 4.8 | 0.00 | 0.00 | 0.00 | 75 | 1015.7 |
| 20260902093033 | 26 | 161 | 1.6 | 4.8 | 0.00 | 0.00 | 0.00 | 76 | 1015.8 |
| 20260902092932 | 26 | 161 | 1.6 | 4.8 | 0.00 | 0.00 | 0.00 | 76 | 1015.8 |
| 20260902092834 | 26 | 161 | 1.6 | 4.8 | 0.00 | 0.00 | 0.00 | 76 | 1015.7 |
| 20260902092733 | 26 | 161 | 3.2 | 4.8 | 0.00 | 0.00 | 0.00 | 76 | 1015.8 |
| 20260902092634 | 26 | 161 | 3.2 | 4.8 | 0.00 | 0.00 | 0.00 | 76 | 1015.7 |
| 20260902092519 | 26 | 161 | 3.2 | 4.8 | 0.00 | 0.00 | 0.00 | 76 | 1015.8 |
| 20260902092438 | 26 | 153 | 3.2 | 8.0 | 0.00 | 0.00 | 0.00 | 76 | 1015.8 |
| 20260902092318 | 26 | 360 | 3.2 | 8.0 | 0.00 | 0.00 | 0.00 | 76 | 1015.8 |
| 20260902092219 | 26 | 360 | 3.2 | 8.0 | 0.00 | 0.00 | 0.00 | 76 | 1015.8 |
| 20260902092119 | 26 | 360 | 1.6 | 8.0 | 0.00 | 0.00 | 0.00 | 76 | 1015.9 |
| 20260902092020 | 26 | 360 | 1.6 | 8.0 | 0.00 | 0.00 | 0.00 | 76 | 1015.8 |
| 20260902091921 | 26 | 360 | 1.6 | 8.0 | 0.00 | 0.00 | 0.00 | 76 | 1015.8 |
| 20260902091826 | 26 | 360 | 3.2 | 8.0 | 0.00 | 0.00 | 0.00 | 76 | 1015.9 |
| 20260902091727 | 26 | 152 | 3.2 | 8.0 | 0.00 | 0.00 | 0.00 | 75 | 1015.8 |
| 20260902091628 | 26 | 360 | 3.2 | 8.0 | 0.00 | 0.00 | 0.00 | 75 | 1015.9 |
| 20260902091528 | 26 | 360 | 1.6 | 4.8 | 0.00 | 0.00 | 0.00 | 75 | 1015.8 |
| 20260902091448 | 26 | 360 | 1.6 | 4.8 | 0.00 | 0.00 | 0.00 | 75 | 1015.8 |
| 20260902091328 | 26 | 152 | 3.2 | 4.8 | 0.00 | 0.00 | 0.00 | 76 | 1015.8 |
| 20260902091229 | 26 | 152 | 3.2 | 8.0 | 0.00 | 0.00 | 0.00 | 76 | 1015.9 |
| 20260902091150 | 26 | 360 | 3.2 | 8.0 | 0.00 | 0.00 | 0.00 | 77 | 1015.9 |
| 20260902091034 | 26 | 360 | 3.2 | 8.0 | 0.00 | 0.00 | 0.00 | 77 | 1015.9 |
| 20260902090934 | 26 | 360 | 3.2 | 8.0 | 0.00 | 0.00 | 0.00 | 76 | 1015.9 |
| 20260902090834 | 26 | 360 | 3.2 | 8.0 | 0.00 | 0.00 | 0.00 | 76 | 1015.9 |
| 20260902090734 | 26 | 152 | 3.2 | 8.0 | 0.00 | 0.00 | 0.00 | 75 | 1015.9 |
| 20260902090635 | 26 | 360 | 3.2 | 8.0 | 0.00 | 0.00 | 0.00 | 75 | 1015.9 |
| 20260902090536 | 26 | 151 | 3.2 | 8.0 | 0.00 | 0.00 | 0.00 | 75 | 1015.9 |
| 20260902090419 | 26 | 360 | 4.8 | 8.0 | 0.00 | 0.00 | 0.00 | 75 | 1016.0 |
| 20260902090320 | 26 | 152 | 3.2 | 8.0 | 0.00 | 0.00 | 0.00 | 75 | 1015.9 |
| 20260902090221 | 26 | 360 | 3.2 | 4.8 | 0.00 | 0.00 | 0.00 | 75 | 1015.9 |
| 20260902090121 | 26 | 360 | 3.2 | 4.8 | 0.00 | 0.00 | 0.00 | 75 | 1015.9 |
| 20260902090041 | 26 | 360 | 1.6 | 4.8 | 0.00 | 0.00 | 0.00 | 75 | 1015.9 |
| 20260902085941 | 26 | 360 | 1.6 | 4.8 | 0.00 | 0.00 | 0.00 | 75 | 1015.9 |
| 20260902085842 | 26 | 360 | 1.6 | 4.8 | 0.00 | 0.00 | 0.00 | 75 | 1015.9 |
| 20260902085719 | 26 | 360 | 3.2 | 4.8 | 0.00 | 0.00 | 0.00 | 75 | 1015.9 |
| 20260902085624 | 26 | 360 | 3.2 | 4.8 | 0.00 | 0.00 | 0.00 | 75 | 1015.9 |
| 20260902085544 | 26 | 360 | 3.2 | 4.8 | 0.00 | 0.00 | 0.00 | 75 | 1016.0 |
| 20260902085444 | 26 | 184 | 3.2 | 4.8 | 0.00 | 0.00 | 0.00 | 75 | 1015.9 |
| 20260902085324 | 26 | 360 | 3.2 | 4.8 | 0.00 | 0.00 | 0.00 | 75 | 1015.9 |
| 20260902085224 | 26 | 184 | 3.2 | 6.4 | 0.00 | 0.00 | 0.00 | 74 | 1015.9 |
| 20260902085124 | 26 | 360 | 3.2 | 6.4 | 0.00 | 0.00 | 0.00 | 74 | 1015.9 |
| 20260902085027 | 26 | 360 | 3.2 | 6.4 | 0.00 | 0.00 | 0.00 | 74 | 1015.9 |
| 20260902084932 | 26 | 360 | 3.2 | 6.4 | 0.00 | 0.00 | 0.00 | 74 | 1015.8 |
| 20260902084832 | 26 | 184 | 3.2 | 6.4 | 0.00 | 0.00 | 0.00 | 74 | 1015.9 |
| 20260902084733 | 26 | 360 | 1.6 | 6.4 | 0.00 | 0.00 | 0.00 | 74 | 1015.9 |
| 20260902084634 | 26 | 360 | 3.2 | 6.4 | 0.00 | 0.00 | 0.00 | 74 | 1015.9 |
| 20260902084535 | 26 | 184 | 3.2 | 6.4 | 0.00 | 0.00 | 0.00 | 74 | 1015.9 |
| 20260902084435 | 26 | 360 | 3.2 | 6.4 | 0.00 | 0.00 | 0.00 | 74 | 1015.9 |
| 20260902084320 | 26 | 360 | 3.2 | 6.4 | 0.00 | 0.00 | 0.00 | 74 | 1016.0 |
| 20260902084220 | 26 | 360 | 1.6 | 6.4 | 0.00 | 0.00 | 0.00 | 74 | 1015.9 |
| 20260902084121 | 26 | 360 | 1.6 | 12.9 | 0.00 | 0.00 | 0.00 | 74 | 1016.0 |
| 20260902084042 | 26 | 360 | 3.2 | 12.9 | 0.00 | 0.00 | 0.00 | 74 | 1015.9 |
| 20260902083922 | 26 | 360 | 3.2 | 12.9 | 0.00 | 0.00 | 0.00 | 74 | 1016.0 |
| 20260902083821 | 26 | 360 | 3.2 | 12.9 | 0.00 | 0.00 | 0.00 | 74 | 1015.9 |
| 20260902083723 | 26 | 360 | 3.2 | 12.9 | 0.00 | 0.00 | 0.00 | 74 | 1015.9 |
| 20260902083628 | 26 | 360 | 3.2 | 12.9 | 0.00 | 0.00 | 0.00 | 74 | 1015.9 |
| 20260902083549 | 26 | 360 | 1.6 | 12.9 | 0.00 | 0.00 | 0.00 | 74 | 1015.9 |
| 20260902083427 | 26 | 360 | 1.6 | 12.9 | 0.00 | 0.00 | 0.00 | 74 | 1015.9 |
| 20260902083327 | 26 | 360 | 3.2 | 12.9 | 0.00 | 0.00 | 0.00 | 73 | 1015.8 |
| 20260902083226 | 26 | 360 | 3.2 | 12.9 | 0.00 | 0.00 | 0.00 | 73 | 1015.9 |
| 20260902083126 | 26 | 360 | 3.2 | 12.9 | 0.00 | 0.00 | 0.00 | 73 | 1015.9 |
| 20260902083028 | 26 | 360 | 3.2 | 12.9 | 0.00 | 0.00 | 0.00 | 73 | 1015.8 |
| 20260902082928 | 26 | 360 | 4.8 | 12.9 | 0.00 | 0.00 | 0.00 | 73 | 1015.8 |
| 20260902082830 | 26 | 360 | 6.4 | 12.9 | 0.00 | 0.00 | 0.00 | 73 | 1015.8 |
| 20260902082734 | 26 | 360 | 4.8 | 12.9 | 0.00 | 0.00 | 0.00 | 73 | 1015.8 |
| 20260902082653 | 26 | 360 | 4.8 | 9.7 | 0.00 | 0.00 | 0.00 | 73 | 1015.8 |
| 20260902082533 | 26 | 360 | 3.2 | 9.7 | 0.00 | 0.00 | 0.00 | 73 | 1015.7 |
| 20260902082433 | 26 | 360 | 3.2 | 9.7 | 0.00 | 0.00 | 0.00 | 73 | 1015.8 |
| 20260902082334 | 26 | 360 | 3.2 | 9.7 | 0.00 | 0.00 | 0.00 | 73 | 1015.7 |
| 20260902082234 | 26 | 360 | 3.2 | 9.7 | 0.00 | 0.00 | 0.00 | 73 | 1015.8 |
| 20260902082119 | 26 | 360 | 4.8 | 9.7 | 0.00 | 0.00 | 0.00 | 73 | 1015.9 |
| 20260902082039 | 26 | 360 | 4.8 | 9.7 | 0.00 | 0.00 | 0.00 | 73 | 1015.8 |
| 20260902081919 | 26 | 360 | 4.8 | 9.7 | 0.00 | 0.00 | 0.00 | 73 | 1015.8 |
| 20260902081819 | 26 | 360 | 3.2 | 6.4 | 0.00 | 0.00 | 0.00 | 73 | 1015.8 |
| 20260902081719 | 26 | 360 | 1.6 | 6.4 | 0.00 | 0.00 | 0.00 | 73 | 1015.9 |
| 20260902081639 | 26 | 360 | 1.6 | 6.4 | 0.00 | 0.00 | 0.00 | 73 | 1015.9 |
| 20260902081519 | 26 | 360 | 3.2 | 6.4 | 0.00 | 0.00 | 0.00 | 73 | 1015.9 |
| 20260902081419 | 26 | 360 | 3.2 | 6.4 | 0.00 | 0.00 | 0.00 | 73 | 1016.0 |
| 20260902081324 | 26 | 360 | 3.2 | 6.4 | 0.00 | 0.00 | 0.00 | 73 | 1016.0 |
| 20260902081244 | 26 | 360 | 1.6 | 6.4 | 0.00 | 0.00 | 0.00 | 73 | 1015.9 |
| 20260902081124 | 26 | 360 | 1.6 | 6.4 | 0.00 | 0.00 | 0.00 | 73 | 1016.0 |
| 20260902081024 | 26 | 360 | 1.6 | 6.4 | 0.00 | 0.00 | 0.00 | 73 | 1016.0 |
| 20260902080945 | 27 | 360 | 1.6 | 6.4 | 0.00 | 0.00 | 0.00 | 72 | 1016.0 |
| 20260902080824 | 27 | 360 | 1.6 | 6.4 | 0.00 | 0.00 | 0.00 | 72 | 1016.0 |
| 20260902080725 | 27 | 360 | 3.2 | 6.4 | 0.00 | 0.00 | 0.00 | 72 | 1016.0 |
| 20260902080645 | 27 | 360 | 3.2 | 6.4 | 0.00 | 0.00 | 0.00 | 72 | 1016.0 |
| 20260902080529 | 27 | 360 | 3.2 | 6.4 | 0.00 | 0.00 | 0.00 | 72 | 1016.0 |
| 20260902080430 | 27 | 360 | 3.2 | 6.4 | 0.00 | 0.00 | 0.00 | 72 | 1016.1 |
| 20260902080350 | 27 | 360 | 1.6 | 6.4 | 0.00 | 0.00 | 0.00 | 72 | 1016.1 |
| 20260902080229 | 27 | 360 | 1.6 | 4.8 | 0.00 | 0.00 | 0.00 | 72 | 1016.0 |
| 20260902080129 | 27 | 360 | 1.6 | 4.8 | 0.00 | 0.00 | 0.00 | 72 | 1016.0 |
| 20260902080049 | 27 | 360 | 1.6 | 4.8 | 0.00 | 0.00 | 0.00 | 72 | 1016.0 |
| 20260902075929 | 27 | 360 | 1.6 | 3.2 | 0.00 | 0.00 | 0.00 | 73 | 1016.0 |
| 20260902075830 | 27 | 360 | 1.6 | 3.2 | 0.00 | 0.00 | 0.00 | 73 | 1016.1 |
| 20260902075733 | 27 | 360 | 1.6 | 6.4 | 0.00 | 0.00 | 0.00 | 73 | 1016.0 |
| 20260902075634 | 27 | 360 | 1.6 | 6.4 | 0.00 | 0.00 | 0.00 | 72 | 1016.1 |
| 20260902075554 | 27 | 360 | 1.6 | 6.4 | 0.00 | 0.00 | 0.00 | 72 | 1016.0 |
| 20260902075433 | 27 | 175 | 1.6 | 6.4 | 0.00 | 0.00 | 0.00 | 72 | 1016.0 |
| 20260902075333 | 27 | 175 | 1.6 | 6.4 | 0.00 | 0.00 | 0.00 | 72 | 1016.0 |
| 20260902075234 | 27 | 360 | 1.6 | 6.4 | 0.00 | 0.00 | 0.00 | 72 | 1016.0 |
| 20260902075116 | 27 | 175 | 3.2 | 6.4 | 0.00 | 0.00 | 0.00 | 72 | 1016.0 |
| 20260902075040 | 27 | 360 | 3.2 | 6.4 | 0.00 | 0.00 | 0.00 | 72 | 1015.9 |
| 20260902074920 | 27 | 360 | 3.2 | 9.7 | 0.00 | 0.00 | 0.00 | 72 | 1016.0 |
| 20260902074820 | 27 | 360 | 3.2 | 9.7 | 0.00 | 0.00 | 0.00 | 72 | 1016.0 |
| 20260902074721 | 27 | 360 | 3.2 | 9.7 | 0.00 | 0.00 | 0.00 | 72 | 1016.0 |
| 20260902074620 | 27 | 175 | 1.6 | 9.7 | 0.00 | 0.00 | 0.00 | 72 | 1016.0 |
| 20260902074520 | 27 | 175 | 1.6 | 9.7 | 0.00 | 0.00 | 0.00 | 72 | 1016.0 |
| 20260902074422 | 27 | 360 | 1.6 | 9.7 | 0.00 | 0.00 | 0.00 | 72 | 1016.0 |
| 20260902074343 | 27 | 360 | 3.2 | 9.7 | 0.00 | 0.00 | 0.00 | 72 | 1016.0 |
| 20260902074227 | 27 | 360 | 3.2 | 9.7 | 0.00 | 0.00 | 0.00 | 72 | 1016.0 |
| 20260902074148 | 27 | 360 | 4.8 | 9.7 | 0.00 | 0.00 | 0.00 | 72 | 1016.0 |
| 20260902074027 | 27 | 360 | 3.2 | 8.0 | 0.00 | 0.00 | 0.00 | 72 | 1016.0 |
| 20260902073927 | 27 | 360 | 3.2 | 8.0 | 0.00 | 0.00 | 0.00 | 72 | 1015.9 |
| 20260902073827 | 27 | 360 | 3.2 | 8.0 | 0.00 | 0.00 | 0.00 | 72 | 1016.0 |
| 20260902073728 | 27 | 360 | 3.2 | 8.0 | 0.00 | 0.00 | 0.00 | 72 | 1016.0 |
| 20260902073649 | 27 | 360 | 3.2 | 8.0 | 0.00 | 0.00 | 0.00 | 72 | 1016.0 |
| 20260902073528 | 27 | 360 | 3.2 | 8.0 | 0.00 | 0.00 | 0.00 | 72 | 1016.0 |
| 20260902073452 | 27 | 360 | 3.2 | 12.9 | 0.00 | 0.00 | 0.00 | 72 | 1016.0 |
| 20260902073332 | 27 | 360 | 4.8 | 12.9 | 0.00 | 0.00 | 0.00 | 72 | 1016.0 |
| 20260902073234 | 27 | 360 | 4.8 | 12.9 | 0.00 | 0.00 | 0.00 | 72 | 1016.0 |
| 20260902073134 | 27 | 360 | 3.2 | 12.9 | 0.00 | 0.00 | 0.00 | 72 | 1016.0 |
| 20260902073034 | 27 | 360 | 3.2 | 12.9 | 0.00 | 0.00 | 0.00 | 72 | 1015.9 |
| 20260902072933 | 27 | 360 | 3.2 | 12.9 | 0.00 | 0.00 | 0.00 | 72 | 1016.0 |
| 20260902072835 | 27 | 360 | 4.8 | 12.9 | 0.00 | 0.00 | 0.00 | 72 | 1016.0 |
| 20260902072720 | 27 | 360 | 4.8 | 12.9 | 0.00 | 0.00 | 0.00 | 72 | 1016.0 |
| 20260902072620 | 27 | 360 | 4.8 | 12.9 | 0.00 | 0.00 | 0.00 | 72 | 1016.0 |
| 20260902072541 | 27 | 360 | 4.8 | 9.7 | 0.00 | 0.00 | 0.00 | 72 | 1016.0 |
| 20260902072421 | 27 | 360 | 4.8 | 9.7 | 0.00 | 0.00 | 0.00 | 72 | 1016.0 |
| 20260902072321 | 27 | 360 | 4.8 | 9.7 | 0.00 | 0.00 | 0.00 | 72 | 1016.0 |
| 20260902072222 | 27 | 360 | 3.2 | 9.7 | 0.00 | 0.00 | 0.00 | 72 | 1016.1 |
| 20260902072124 | 27 | 360 | 3.2 | 14.5 | 0.00 | 0.00 | 0.00 | 71 | 1016.0 |
| 20260902072023 | 27 | 360 | 3.2 | 14.5 | 0.00 | 0.00 | 0.00 | 72 | 1016.0 |
| 20260902071948 | 27 | 360 | 3.2 | 14.5 | 0.00 | 0.00 | 0.00 | 71 | 1016.0 |
| 20260902071827 | 27 | 360 | 3.2 | 14.5 | 0.00 | 0.00 | 0.00 | 72 | 1015.9 |
| 20260902071728 | 27 | 360 | 4.8 | 14.5 | 0.00 | 0.00 | 0.00 | 71 | 1016.0 |
| 20260902071649 | 27 | 360 | 3.2 | 14.5 | 0.00 | 0.00 | 0.00 | 71 | 1016.0 |
| 20260902071550 | 27 | 360 | 3.2 | 14.5 | 0.00 | 0.00 | 0.00 | 71 | 1016.0 |
| 20260902071449 | 27 | 360 | 4.8 | 9.7 | 0.00 | 0.00 | 0.00 | 71 | 1016.0 |
| 20260902071329 | 27 | 360 | 4.8 | 9.7 | 0.00 | 0.00 | 0.00 | 71 | 1016.0 |
| 20260902071230 | 27 | 360 | 3.2 | 9.7 | 0.00 | 0.00 | 0.00 | 71 | 1016.0 |
| 20260902071150 | 27 | 360 | 3.2 | 9.7 | 0.00 | 0.00 | 0.00 | 71 | 1016.1 |
| 20260902071034 | 27 | 360 | 3.2 | 9.7 | 0.00 | 0.00 | 0.00 | 71 | 1016.0 |
| 20260902070935 | 27 | 360 | 3.2 | 9.7 | 0.00 | 0.00 | 0.00 | 71 | 1016.1 |
| 20260902070816 | 27 | 360 | 3.2 | 9.7 | 0.00 | 0.00 | 0.00 | 71 | 1016.1 |
| 20260902070717 | 27 | 360 | 3.2 | 9.7 | 0.00 | 0.00 | 0.00 | 71 | 1016.1 |
| 20260902070617 | 27 | 360 | 3.2 | 9.7 | 0.00 | 0.00 | 0.00 | 71 | 1016.2 |
| 20260902070518 | 27 | 360 | 3.2 | 9.7 | 0.00 | 0.00 | 0.00 | 71 | 1016.2 |
| 20260902070422 | 27 | 360 | 4.8 | 9.7 | 0.00 | 0.00 | 0.00 | 71 | 1016.2 |
| 20260902070343 | 27 | 360 | 4.8 | 9.7 | 0.00 | 0.00 | 0.00 | 71 | 1016.1 |
| 20260902070216 | 27 | 360 | 3.2 | 16.1 | 0.00 | 0.00 | 0.00 | 71 | 1016.1 |
| 20260902070116 | 27 | 360 | 3.2 | 16.1 | 0.00 | 0.00 | 0.00 | 71 | 1016.1 |
| 20260902070017 | 27 | 360 | 3.2 | 16.1 | 0.00 | 0.00 | 0.00 | 71 | 1016.1 |
| 20260902065917 | 27 | 360 | 3.2 | 17.7 | 0.00 | 0.00 | 0.00 | 71 | 1016.1 |
| 20260902065818 | 27 | 360 | 3.2 | 17.7 | 0.00 | 0.00 | 0.00 | 71 | 1016.2 |
| 20260902065723 | 27 | 360 | 3.2 | 17.7 | 0.00 | 0.00 | 0.00 | 71 | 1016.1 |
| 20260902065623 | 27 | 360 | 4.8 | 17.7 | 0.00 | 0.00 | 0.00 | 71 | 1016.1 |
| 20260902065524 | 27 | 360 | 4.8 | 17.7 | 0.00 | 0.00 | 0.00 | 71 | 1016.1 |
| 20260902065425 | 27 | 360 | 4.8 | 17.7 | 0.00 | 0.00 | 0.00 | 71 | 1016.1 |
| 20260902065326 | 27 | 360 | 4.8 | 17.7 | 0.00 | 0.00 | 0.00 | 71 | 1016.0 |
| 20260902065226 | 27 | 360 | 6.4 | 17.7 | 0.00 | 0.00 | 0.00 | 71 | 1016.1 |
| 20260902065130 | 27 | 360 | 4.8 | 17.7 | 0.00 | 0.00 | 0.00 | 72 | 1016.1 |
| 20260902065032 | 27 | 360 | 4.8 | 17.7 | 0.00 | 0.00 | 0.00 | 72 | 1016.1 |
| 20260902064932 | 27 | 360 | 4.8 | 14.5 | 0.00 | 0.00 | 0.00 | 72 | 1016.1 |
| 20260902064832 | 27 | 360 | 4.8 | 14.5 | 0.00 | 0.00 | 0.00 | 72 | 1016.1 |
| 20260902064731 | 27 | 360 | 3.2 | 14.5 | 0.00 | 0.00 | 0.00 | 72 | 1016.1 |
| 20260902064632 | 27 | 360 | 3.2 | 14.5 | 0.00 | 0.00 | 0.00 | 73 | 1016.1 |
| 20260902064533 | 27 | 360 | 3.2 | 14.5 | 0.00 | 0.00 | 0.00 | 73 | 1016.1 |
| 20260902064417 | 27 | 360 | 3.2 | 14.5 | 0.00 | 0.00 | 0.00 | 72 | 1016.0 |
| 20260902064317 | 27 | 360 | 3.2 | 14.5 | 0.00 | 0.00 | 0.00 | 72 | 1016.1 |
| 20260902064217 | 27 | 360 | 3.2 | 14.5 | 0.00 | 0.00 | 0.00 | 72 | 1016.0 |
| 20260902064118 | 27 | 360 | 3.2 | 14.5 | 0.00 | 0.00 | 0.00 | 72 | 1016.0 |
| 20260902064038 | 27 | 360 | 4.8 | 16.1 | 0.00 | 0.00 | 0.00 | 72 | 1016.1 |
| 20260902063918 | 27 | 360 | 4.8 | 16.1 | 0.00 | 0.00 | 0.00 | 72 | 1016.1 |
| 20260902063819 | 27 | 360 | 4.8 | 16.1 | 0.00 | 0.00 | 0.00 | 72 | 1016.1 |
| 20260902063722 | 27 | 360 | 3.2 | 16.1 | 0.00 | 0.00 | 0.00 | 72 | 1016.1 |
| 20260902063623 | 27 | 360 | 3.2 | 16.1 | 0.00 | 0.00 | 0.00 | 72 | 1016.1 |
| 20260902063543 | 27 | 360 | 1.6 | 16.1 | 0.00 | 0.00 | 0.00 | 72 | 1016.1 |
| 20260902063416 | 27 | 360 | 3.2 | 16.1 | 0.00 | 0.00 | 0.00 | 72 | 1016.0 |
| 20260902063317 | 27 | 360 | 4.8 | 16.1 | 0.00 | 0.00 | 0.00 | 72 | 1016.1 |
| 20260902063218 | 27 | 360 | 4.8 | 16.1 | 0.00 | 0.00 | 0.00 | 72 | 1016.1 |
| 20260902063122 | 27 | 360 | 4.8 | 16.1 | 0.00 | 0.00 | 0.00 | 72 | 1016.1 |
| 20260902063043 | 27 | 360 | 4.8 | 16.1 | 0.00 | 0.00 | 0.00 | 72 | 1016.1 |
| 20260902062922 | 27 | 360 | 4.8 | 16.1 | 0.00 | 0.00 | 0.00 | 72 | 1016.1 |
| 20260902062824 | 27 | 360 | 4.8 | 16.1 | 0.00 | 0.00 | 0.00 | 72 | 1016.1 |
| 20260902062722 | 27 | 360 | 3.2 | 16.1 | 0.00 | 0.00 | 0.00 | 72 | 1016.1 |
| 20260902062622 | 27 | 360 | 4.8 | 16.1 | 0.00 | 0.00 | 0.00 | 72 | 1016.2 |
| 20260902062523 | 27 | 360 | 4.8 | 16.1 | 0.00 | 0.00 | 0.00 | 72 | 1016.0 |
| 20260902062444 | 27 | 360 | 4.8 | 16.1 | 0.00 | 0.00 | 0.00 | 73 | 1016.2 |
| 20260902062327 | 27 | 360 | 3.2 | 14.5 | 0.00 | 0.00 | 0.00 | 72 | 1016.1 |
| 20260902062228 | 27 | 360 | 3.2 | 14.5 | 0.00 | 0.00 | 0.00 | 72 | 1016.1 |
| 20260902062129 | 27 | 360 | 4.8 | 14.5 | 0.00 | 0.00 | 0.00 | 73 | 1016.1 |
| 20260902062050 | 27 | 360 | 4.8 | 12.9 | 0.00 | 0.00 | 0.00 | 73 | 1016.1 |
| 20260902061929 | 27 | 360 | 4.8 | 14.5 | 0.00 | 0.00 | 0.00 | 73 | 1016.1 |
| 20260902061848 | 27 | 360 | 3.2 | 14.5 | 0.00 | 0.00 | 0.00 | 73 | 1016.1 |
| 20260902061728 | 27 | 360 | 3.2 | 14.5 | 0.00 | 0.00 | 0.00 | 72 | 1016.0 |
| 20260902061633 | 27 | 360 | 3.2 | 14.5 | 0.00 | 0.00 | 0.00 | 72 | 1016.0 |
| 20260902061532 | 27 | 360 | 3.2 | 14.5 | 0.00 | 0.00 | 0.00 | 72 | 1016.1 |
| 20260902061434 | 27 | 360 | 3.2 | 14.5 | 0.00 | 0.00 | 0.00 | 72 | 1016.1 |
| 20260902061335 | 27 | 360 | 4.8 | 14.5 | 0.00 | 0.00 | 0.00 | 72 | 1016.1 |
| 20260902061235 | 27 | 360 | 4.8 | 14.5 | 0.00 | 0.00 | 0.00 | 72 | 1016.1 |
| 20260902061136 | 27 | 360 | 4.8 | 14.5 | 0.00 | 0.00 | 0.00 | 72 | 1016.1 |
| 20260902061020 | 27 | 360 | 4.8 | 16.1 | 0.00 | 0.00 | 0.00 | 72 | 1016.1 |
| 20260902060940 | 27 | 360 | 4.8 | 16.1 | 0.00 | 0.00 | 0.00 | 72 | 1016.2 |
| 20260902060819 | 27 | 360 | 4.8 | 16.1 | 0.00 | 0.00 | 0.00 | 72 | 1016.1 |
| 20260902060720 | 27 | 360 | 4.8 | 16.1 | 0.00 | 0.00 | 0.00 | 72 | 1016.1 |
| 20260902060620 | 27 | 360 | 4.8 | 16.1 | 0.00 | 0.00 | 0.00 | 72 | 1016.1 |
| 20260902060520 | 27 | 360 | 4.8 | 20.9 | 0.00 | 0.00 | 0.00 | 72 | 1016.1 |
| 20260902060442 | 27 | 360 | 4.8 | 20.9 | 0.00 | 0.00 | 0.00 | 72 | 1016.0 |
| 20260902060322 | 27 | 360 | 4.8 | 20.9 | 0.00 | 0.00 | 0.00 | 72 | 1016.1 |
| 20260902060226 | 28 | 360 | 6.4 | 20.9 | 0.00 | 0.00 | 0.00 | 72 | 1016.1 |
| 20260902060127 | 28 | 360 | 6.4 | 20.9 | 0.00 | 0.00 | 0.00 | 72 | 1016.1 |
| 20260902060027 | 28 | 360 | 4.8 | 20.9 | 0.00 | 0.00 | 0.00 | 72 | 1016.0 |
| 20260902055927 | 28 | 360 | 3.2 | 20.9 | 0.00 | 0.00 | 0.00 | 72 | 1016.1 |
| 20260902055849 | 28 | 360 | 3.2 | 20.9 | 0.00 | 0.00 | 0.00 | 72 | 1016.0 |
| 20260902055724 | 28 | 360 | 4.8 | 20.9 | 0.00 | 0.00 | 0.00 | 72 | 1016.1 |
| 20260902055624 | 28 | 360 | 4.8 | 20.9 | 0.00 | 0.00 | 0.00 | 72 | 1016.1 |
| 20260902055524 | 28 | 360 | 4.8 | 20.9 | 0.00 | 0.00 | 0.00 | 72 | 1016.1 |
| 20260902055449 | 28 | 360 | 3.2 | 20.9 | 0.00 | 0.00 | 0.00 | 72 | 1016.1 |
| 20260902055328 | 28 | 360 | 4.8 | 19.3 | 0.00 | 0.00 | 0.00 | 72 | 1016.1 |
| 20260902055229 | 28 | 360 | 6.4 | 19.3 | 0.00 | 0.00 | 0.00 | 72 | 1016.1 |
| 20260902055150 | 28 | 360 | 8.0 | 19.3 | 0.00 | 0.00 | 0.00 | 72 | 1016.1 |
| 20260902055050 | 28 | 360 | 9.7 | 19.3 | 0.00 | 0.00 | 0.00 | 72 | 1016.2 |
| 20260902054928 | 28 | 360 | 6.4 | 19.3 | 0.00 | 0.00 | 0.00 | 72 | 1016.1 |
| 20260902054828 | 28 | 360 | 8.0 | 19.3 | 0.00 | 0.00 | 0.00 | 72 | 1016.1 |
| 20260902054729 | 28 | 360 | 6.4 | 19.3 | 0.00 | 0.00 | 0.00 | 72 | 1016.1 |
| 20260902054650 | 28 | 360 | 8.0 | 19.3 | 0.00 | 0.00 | 0.00 | 72 | 1016.2 |
| 20260902054533 | 28 | 360 | 6.4 | 19.3 | 0.00 | 0.00 | 0.00 | 72 | 1016.1 |
| 20260902054433 | 28 | 360 | 8.0 | 19.3 | 0.00 | 0.00 | 0.00 | 72 | 1016.0 |
| 20260902054354 | 28 | 360 | 8.0 | 19.3 | 0.00 | 0.00 | 0.00 | 72 | 1016.1 |
| 20260902054254 | 28 | 360 | 8.0 | 19.3 | 0.00 | 0.00 | 0.00 | 71 | 1016.1 |
| 20260902054133 | 28 | 360 | 6.4 | 19.3 | 0.00 | 0.00 | 0.00 | 71 | 1016.1 |
| 20260902054033 | 28 | 360 | 6.4 | 17.7 | 0.00 | 0.00 | 0.00 | 71 | 1016.1 |
| 20260902053933 | 28 | 360 | 6.4 | 17.7 | 0.00 | 0.00 | 0.00 | 71 | 1016.1 |
| 20260902053855 | 28 | 360 | 6.4 | 17.7 | 0.00 | 0.00 | 0.00 | 71 | 1016.1 |
| 20260902053738 | 28 | 360 | 6.4 | 17.7 | 0.00 | 0.00 | 0.00 | 71 | 1016.1 |
| 20260902053618 | 28 | 360 | 6.4 | 20.9 | 0.00 | 0.00 | 0.00 | 71 | 1016.1 |
| 20260902053517 | 28 | 360 | 6.4 | 20.9 | 0.00 | 0.00 | 0.00 | 71 | 1016.0 |
| 20260902053418 | 28 | 360 | 6.4 | 20.9 | 0.00 | 0.00 | 0.00 | 71 | 1016.0 |
| 20260902053318 | 28 | 360 | 6.4 | 20.9 | 0.00 | 0.00 | 0.00 | 71 | 1016.0 |
| 20260902053218 | 28 | 360 | 8.0 | 20.9 | 0.00 | 0.00 | 0.00 | 71 | 1016.0 |
| 20260902053140 | 28 | 360 | 9.7 | 20.9 | 0.00 | 0.00 | 0.00 | 71 | 1016.0 |
| 20260902053023 | 28 | 360 | 9.7 | 20.9 | 0.00 | 0.00 | 0.00 | 71 | 1016.1 |
| 20260902052944 | 28 | 360 | 9.7 | 20.9 | 0.00 | 0.00 | 0.00 | 71 | 1016.1 |
| 20260902052845 | 28 | 360 | 8.0 | 20.9 | 0.00 | 0.00 | 0.00 | 71 | 1016.0 |
| 20260902052723 | 28 | 360 | 8.0 | 16.1 | 0.00 | 0.00 | 0.00 | 71 | 1016.1 |
| 20260902052643 | 28 | 360 | 8.0 | 20.9 | 0.00 | 0.00 | 0.00 | 71 | 1016.1 |
| 20260902052523 | 28 | 360 | 8.0 | 20.9 | 0.00 | 0.00 | 0.00 | 71 | 1016.1 |
| 20260902052423 | 28 | 360 | 6.4 | 20.9 | 0.00 | 0.00 | 0.00 | 71 | 1016.0 |
| 20260902052324 | 28 | 360 | 4.8 | 20.9 | 0.00 | 0.00 | 0.00 | 71 | 1016.0 |
| 20260902052228 | 28 | 360 | 6.4 | 20.9 | 0.00 | 0.00 | 0.00 | 71 | 1016.1 |
| 20260902052128 | 28 | 360 | 8.0 | 20.9 | 0.00 | 0.00 | 0.00 | 71 | 1016.1 |
| 20260902052029 | 28 | 360 | 9.7 | 20.9 | 0.00 | 0.00 | 0.00 | 71 | 1016.0 |
| 20260902051930 | 28 | 360 | 9.7 | 20.9 | 0.00 | 0.00 | 0.00 | 71 | 1016.1 |
| 20260902051830 | 28 | 360 | 9.7 | 20.9 | 0.00 | 0.00 | 0.00 | 71 | 1016.1 |
| 20260902051731 | 28 | 360 | 9.7 | 25.7 | 0.00 | 0.00 | 0.00 | 70 | 1016.1 |
| 20260902051631 | 28 | 360 | 8.0 | 25.7 | 0.00 | 0.00 | 0.00 | 70 | 1016.1 |
| 20260902051556 | 28 | 360 | 8.0 | 25.7 | 0.00 | 0.00 | 0.00 | 70 | 1016.1 |
| 20260902051434 | 28 | 360 | 9.7 | 25.7 | 0.00 | 0.00 | 0.00 | 70 | 1016.1 |
| 20260902051334 | 28 | 360 | 8.0 | 25.7 | 0.00 | 0.00 | 0.00 | 70 | 1016.1 |
| 20260902051234 | 28 | 360 | 9.7 | 25.7 | 0.00 | 0.00 | 0.00 | 70 | 1016.1 |
| 20260902051135 | 28 | 360 | 11.3 | 25.7 | 0.00 | 0.00 | 0.00 | 70 | 1016.1 |
| 20260902051054 | 28 | 360 | 11.3 | 25.7 | 0.00 | 0.00 | 0.00 | 70 | 1016.1 |
| 20260902050934 | 28 | 360 | 11.3 | 25.7 | 0.00 | 0.00 | 0.00 | 70 | 1016.1 |
| 20260902050820 | 28 | 360 | 11.3 | 20.9 | 0.00 | 0.00 | 0.00 | 70 | 1016.1 |
| 20260902050720 | 28 | 360 | 9.7 | 20.9 | 0.00 | 0.00 | 0.00 | 70 | 1016.1 |
| 20260902050620 | 28 | 360 | 9.7 | 20.9 | 0.00 | 0.00 | 0.00 | 70 | 1016.1 |
| 20260902050521 | 28 | 360 | 8.0 | 22.5 | 0.00 | 0.00 | 0.00 | 70 | 1016.2 |
| 20260902050422 | 28 | 360 | 8.0 | 22.5 | 0.00 | 0.00 | 0.00 | 70 | 1016.1 |
| 20260902050322 | 28 | 360 | 9.7 | 22.5 | 0.00 | 0.00 | 0.00 | 70 | 1016.2 |
| 20260902050227 | 28 | 360 | 9.7 | 22.5 | 0.00 | 0.00 | 0.00 | 70 | 1016.2 |
| 20260902050127 | 28 | 360 | 11.3 | 22.5 | 0.00 | 0.00 | 0.00 | 70 | 1016.2 |
| 20260902050028 | 28 | 360 | 11.3 | 22.5 | 0.00 | 0.00 | 0.00 | 70 | 1016.2 |
| 20260902045922 | 28 | 360 | 12.9 | 22.5 | 0.00 | 0.00 | 0.00 | 70 | 1016.1 |
| 20260902045823 | 28 | 360 | 12.9 | 22.5 | 0.00 | 0.00 | 0.00 | 70 | 1016.2 |
| 20260902045723 | 28 | 360 | 11.3 | 22.5 | 0.00 | 0.00 | 0.00 | 70 | 1016.2 |
| 20260902045622 | 28 | 360 | 11.3 | 22.5 | 0.00 | 0.00 | 0.00 | 70 | 1016.1 |
| 20260902045543 | 28 | 360 | 9.7 | 20.9 | 0.00 | 0.00 | 0.00 | 70 | 1016.2 |
| 20260902045426 | 28 | 360 | 11.3 | 17.7 | 0.00 | 0.00 | 0.00 | 69 | 1016.2 |
| 20260902045327 | 28 | 360 | 11.3 | 17.7 | 0.00 | 0.00 | 0.00 | 69 | 1016.2 |
| 20260902045227 | 28 | 360 | 9.7 | 17.7 | 0.00 | 0.00 | 0.00 | 69 | 1016.1 |
| 20260902045148 | 28 | 360 | 9.7 | 17.7 | 0.00 | 0.00 | 0.00 | 69 | 1016.2 |
| 20260902045026 | 28 | 360 | 9.7 | 16.1 | 0.00 | 0.00 | 0.00 | 69 | 1016.2 |
| 20260902044945 | 28 | 360 | 11.3 | 16.1 | 0.00 | 0.00 | 0.00 | 69 | 1016.2 |
| 20260902044825 | 28 | 360 | 9.7 | 16.1 | 0.00 | 0.00 | 0.00 | 69 | 1016.2 |
| 20260902044726 | 28 | 360 | 9.7 | 16.1 | 0.00 | 0.00 | 0.00 | 69 | 1016.1 |
| 20260902044630 | 28 | 360 | 9.7 | 16.1 | 0.00 | 0.00 | 0.00 | 69 | 1016.2 |
| 20260902044530 | 28 | 360 | 8.0 | 19.3 | 0.00 | 0.00 | 0.00 | 69 | 1016.1 |
| 20260902044431 | 28 | 360 | 8.0 | 19.3 | 0.00 | 0.00 | 0.00 | 69 | 1016.1 |
| 20260902044351 | 28 | 182 | 8.0 | 19.3 | 0.00 | 0.00 | 0.00 | 69 | 1016.1 |
| 20260902044251 | 28 | 360 | 8.0 | 19.3 | 0.00 | 0.00 | 0.00 | 69 | 1016.1 |
| 20260902044130 | 29 | 360 | 9.7 | 19.3 | 0.00 | 0.00 | 0.00 | 69 | 1016.1 |
| 20260902044051 | 29 | 360 | 9.7 | 19.3 | 0.00 | 0.00 | 0.00 | 68 | 1016.1 |
| 20260902043950 | 29 | 360 | 11.3 | 19.3 | 0.00 | 0.00 | 0.00 | 68 | 1016.1 |
| 20260902043834 | 29 | 360 | 11.3 | 19.3 | 0.00 | 0.00 | 0.00 | 68 | 1016.1 |
| 20260902043735 | 29 | 360 | 11.3 | 19.3 | 0.00 | 0.00 | 0.00 | 68 | 1016.1 |
| 20260902043635 | 29 | 360 | 9.7 | 19.3 | 0.00 | 0.00 | 0.00 | 68 | 1016.0 |
| 20260902043536 | 29 | 360 | 9.7 | 19.3 | 0.00 | 0.00 | 0.00 | 68 | 1016.0 |
| 20260902043458 | 29 | 360 | 9.7 | 19.3 | 0.00 | 0.00 | 0.00 | 68 | 1016.1 |
| 20260902043357 | 29 | 360 | 8.0 | 19.3 | 0.00 | 0.00 | 0.00 | 68 | 1016.0 |
| 20260902043257 | 29 | 360 | 9.7 | 19.3 | 0.00 | 0.00 | 0.00 | 68 | 1016.0 |
| 20260902043135 | 29 | 360 | 9.7 | 19.3 | 0.00 | 0.00 | 0.00 | 68 | 1016.1 |
| 20260902043019 | 29 | 360 | 9.7 | 24.1 | 0.00 | 0.00 | 0.00 | 68 | 1016.0 |
| 20260902042939 | 29 | 360 | 9.7 | 24.1 | 0.00 | 0.00 | 0.00 | 68 | 1016.1 |
| 20260902042820 | 29 | 360 | 9.7 | 24.1 | 0.00 | 0.00 | 0.00 | 68 | 1016.1 |
| 20260902042719 | 29 | 360 | 11.3 | 24.1 | 0.00 | 0.00 | 0.00 | 67 | 1016.1 |
| 20260902042620 | 29 | 360 | 11.3 | 24.1 | 0.00 | 0.00 | 0.00 | 67 | 1016.1 |
| 20260902042520 | 29 | 360 | 11.3 | 24.1 | 0.00 | 0.00 | 0.00 | 67 | 1016.1 |
| 20260902042420 | 29 | 360 | 12.9 | 24.1 | 0.00 | 0.00 | 0.00 | 67 | 1016.1 |
| 20260902042319 | 29 | 360 | 14.5 | 24.1 | 0.00 | 0.00 | 0.00 | 67 | 1016.1 |
| 20260902042224 | 29 | 360 | 12.9 | 24.1 | 0.00 | 0.00 | 0.00 | 67 | 1016.0 |
| 20260902042125 | 29 | 360 | 12.9 | 19.3 | 0.00 | 0.00 | 0.00 | 67 | 1016.1 |
| 20260902042045 | 29 | 360 | 12.9 | 20.9 | 0.00 | 0.00 | 0.00 | 67 | 1016.1 |
| 20260902041924 | 29 | 360 | 12.9 | 20.9 | 0.00 | 0.00 | 0.00 | 67 | 1016.1 |
| 20260902041824 | 29 | 360 | 11.3 | 20.9 | 0.00 | 0.00 | 0.00 | 67 | 1016.1 |
| 20260902041725 | 29 | 360 | 11.3 | 20.9 | 0.00 | 0.00 | 0.00 | 67 | 1016.2 |
| 20260902041626 | 30 | 360 | 9.7 | 20.9 | 0.00 | 0.00 | 0.00 | 67 | 1016.1 |
| 20260902041529 | 30 | 360 | 9.7 | 20.9 | 0.00 | 0.00 | 0.00 | 67 | 1016.1 |
| 20260902041429 | 30 | 360 | 12.9 | 20.9 | 0.00 | 0.00 | 0.00 | 66 | 1016.1 |
| 20260902041330 | 30 | 360 | 14.5 | 20.9 | 0.00 | 0.00 | 0.00 | 66 | 1016.1 |
| 20260902041228 | 30 | 360 | 14.5 | 20.9 | 0.00 | 0.00 | 0.00 | 66 | 1016.1 |
| 20260902041128 | 30 | 360 | 12.9 | 20.9 | 0.00 | 0.00 | 0.00 | 66 | 1016.1 |
| 20260902041027 | 30 | 360 | 12.9 | 20.9 | 0.00 | 0.00 | 0.00 | 66 | 1016.1 |
| 20260902040928 | 30 | 360 | 12.9 | 20.9 | 0.00 | 0.00 | 0.00 | 66 | 1016.1 |
| 20260902040827 | 30 | 360 | 12.9 | 20.9 | 0.00 | 0.00 | 0.00 | 65 | 1016.2 |
| 20260902040732 | 30 | 360 | 12.9 | 20.9 | 0.00 | 0.00 | 0.00 | 65 | 1016.1 |
| 20260902040632 | 30 | 360 | 11.3 | 20.9 | 0.00 | 0.00 | 0.00 | 65 | 1016.2 |
| 20260902040533 | 30 | 360 | 11.3 | 19.3 | 0.00 | 0.00 | 0.00 | 65 | 1016.1 |
| 20260902040432 | 30 | 360 | 12.9 | 19.3 | 0.00 | 0.00 | 0.00 | 65 | 1016.1 |
| 20260902040332 | 30 | 360 | 14.5 | 19.3 | 0.00 | 0.00 | 0.00 | 65 | 1016.1 |
| 20260902040233 | 30 | 360 | 14.5 | 19.3 | 0.00 | 0.00 | 0.00 | 65 | 1016.1 |
| 20260902040117 | 30 | 360 | 12.9 | 19.3 | 0.00 | 0.00 | 0.00 | 65 | 1016.0 |
| 20260902040019 | 30 | 360 | 12.9 | 19.3 | 0.00 | 0.00 | 0.00 | 65 | 1016.0 |